Select the exam which you want to download exam questions & answers.

Vendor Exam Number Exam Namee Updated Date Pay & Download
IBM C2090-311 IBM DB2 10.5 DBA for LUW Upgrade from DB2 10.1 Exam 2016-04-21 12:27:45
IBM C2020-011 IBM SPSS Statistics Level 1 v2 Exam 2016-03-31 16:21:00
IBM C2020-703 IBM Cognos TM1 10.1 Administrator Exam 2016-03-31 16:21:00
IBM C2040-402 Administering IBM Connections 4.0 Exam 2016-03-31 16:21:00
IBM C2140-820 Rational Team Concert V4 Exam 2016-03-31 16:21:00
IBM C2180-276 IBM Business Process Manager Express or Standard Edition V8.0, BPM Application Development Exam 2016-03-31 16:21:00
IBM C2180-401 IBM WebSphere Application Server Network Deployment V8.5.5 and Liberty Profile, System Administration 2016-03-31 16:21:00
IBM C4090-457 IBM Storwize V7000 Implementation V1 2016-03-31 16:21:00
IBM 000-001 Fundamentals of Applying Maximo Enterprise Asset Management Solutions V2 2015-06-25 14:58:18
IBM 000-002 IBM Tivoli Storage Productivity Center V4.1 Implementation 2015-06-25 14:58:18
IBM 000-003 Fund of Applying Tivoli Security & Compliance Mgmt Sol V2 2015-06-25 14:58:18
IBM 000-004 IBM Tivoli Storage Manager V6.1 Administration 2015-06-25 14:58:18
IBM 000-005 IBM Maximo Asset Management V7.1 Solution Design 2015-06-25 14:58:18
IBM 000-006 IBM Tivoli Identity Manager V5.1 Implementation 2015-06-25 14:58:18
IBM 000-007 IBM Tivoli Netcool/OMNIbus V7.3 Implementation 2015-06-25 14:58:18
IBM 000-008 IBM Tivoli Business Service Manager V4.2.1 Implementation 2015-06-25 14:58:18
IBM 000-009 IBM Tivoli Provisioning Manager V7.1.1 Implementation 2015-06-25 14:58:18
IBM 000-010 Fundamentals of Applying Tivoli Service Management Solutions 2008 2015-06-25 14:58:18
IBM 000-011 IBM Tivoli Application Dependency and Discovery Manager V7.1 Implementation 2015-06-25 14:58:18
IBM 000-012 IBM Tivoli Usage and Accounting Manager V7.1 Implementation 2015-06-25 14:58:18
IBM 000-013 Applying Fundamentals of Enterprise Solutions Using IBM Tivoli Security Exam 2008 2015-06-25 14:58:18
IBM 000-014 IBM Tivoli Storage Manager FastBack V5.5 Specialist 2015-06-25 14:58:18
IBM 000-015 IBM Maximo Asset Management V7.1 Implementation 2015-06-25 14:58:18
IBM 000-016 IBM Tivoli Asset Management for IT V7.1 Implementation 2015-06-25 14:58:18
IBM 000-017 Foundations of Tivoli Process Automation Engine 2015-06-25 14:58:18
IBM 000-018 IBM Tivoli Service Request Manager V7.1 Implementation 2015-06-25 14:58:18
IBM 000-019 IBM Tivoli Network Manager IP Edition V3.8 Implementation 2015-06-25 14:58:18
IBM 000-020 IBM Tivoli Access Manager for Enterprise Single Sign-On V8.0.1 Implementation 2015-06-25 14:58:18
IBM 000-021 IBM Tivoli Workload Scheduler V8.5 Implementation 2015-06-25 14:58:18
IBM 000-022 Tivoli Composite Application Mgr for Transactions V7.1 Imple 2015-06-25 14:58:18
IBM 000-023 IBM Tivoli Support Provider Tools and Processes 2015-06-25 14:58:18
IBM 000-025 IBM Tivoli Storage Manager V6.1 Implementation 2015-06-25 14:58:18
IBM 000-026 Fundamentals of Applying Tivoli Storage Solutions V2 2015-06-25 14:58:18
IBM 000-027 IBM Maximo Asset Management V6.2 Implementation 2015-06-25 14:58:18
IBM 000-028 Fundamentals of Applying Tivoli Service Availability and Performance Management Solutions V2 2015-06-25 14:58:18
IBM 000-029 Fundamentals of Applying Tivoli Service Delivery and Process Automation Solutions V2 2015-06-25 14:58:18
IBM 000-030 IBM Tivoli Service Request Manager V7.2 Implementation 2015-06-25 14:58:18
IBM 000-031 IBM Tivoli Service Automation Manager V7.2.1 Implementation 2015-06-25 14:58:18
IBM 000-032 Foundations of IBM Cloud Computing Architecture V1 2015-06-25 14:58:18
IBM 000-033 IBM Tivoli Application Dependency Discovery Manager V7.2 Implementation 2015-06-25 14:58:18
IBM 000-034 IBM Tivoli Monitoring V6.2.2 Fundamentals 2015-06-25 14:58:18
IBM 000-035 IBM Tivoli Asset Management for IT V7.2.1 Implementation 2015-06-25 14:58:18
IBM 000-036 IBM Maximo Asset Management V7.1 Fundamentals 2015-06-25 14:58:18
IBM 000-037 IBM Tivoli Storage Manager V6.2 Implementation 2015-06-25 14:58:18
IBM 000-038 IBM Tivoli Identity Manager V5.1 Fundamental 2015-06-25 14:58:18
IBM 000-039 IBM Tivoli Access Manager for e-business V6.1.1 Implementation 2015-06-25 14:58:18
IBM 000-041 Programming with IBM Enterprise PL/I 2015-06-25 14:58:18
IBM 000-042 Developing with IBM Enterprise PL/I 2015-06-25 14:58:18
IBM 000-046 DOORS v9 2015-06-25 14:58:18
IBM 000-047 Rational System Architect BPMN Emphasis 2015-06-25 14:58:18
IBM 000-048 Rhapsody in C++ 2015-06-25 14:58:18
IBM 000-050 Rational Quality Manager v2.0 2015-06-25 14:58:18
IBM 000-051 Rational Developer for System z v7.6 2015-06-25 14:58:18
IBM 000-052 Collaborative Lifecycle Management V4 2015-06-25 14:58:18
IBM 000-053 Rational Team Concert V3 2015-06-25 14:58:18
IBM 000-055 Rational Automation Framework for WebSphere 2015-06-25 14:58:18
IBM 000-056 Rational BuildForge v7.1 2015-06-25 14:58:18
IBM 000-057 AppScan Source Edition 2015-06-25 14:58:18
IBM 000-058 Rational Performance Tester V8 2015-06-25 14:58:18
IBM 000-060 IBM Dynamic Infrastructure Sales Leader 2015-06-25 14:58:18
IBM 000-061 IBM Dynamic Infrastructure Technical Support Leader 2015-06-25 14:58:18
IBM 000-062 IBM System p5 Virtualization Technical Support AIX 5L V5.3 2015-06-25 14:58:18
IBM 000-068 Virtualization and Business Resilience Technical Design V1 2015-06-25 14:58:18
IBM 000-070 xSeries Sales v3 2015-06-25 14:58:18
IBM 000-071 IBM xSeries Technical Principles V8 2015-06-25 14:58:18
IBM 000-074 xSeries - Windows 2000/2003 Install+Performance Optimization 2015-06-25 14:58:18
IBM 000-076 System x Sales V5 2015-06-25 14:58:18
IBM 000-077 xSeries Technical High Performance Servers V2 2015-06-25 14:58:18
IBM 000-078 xSeries Technical BladeCenter 2015-06-25 14:58:18
IBM 000-079 System x IBM Director v5.2 2015-06-25 14:58:18
IBM 000-080 System x Sales Fundamentals V7 2015-06-25 14:58:18
IBM 000-081 System x Technical Principles V9 2015-06-25 14:58:18
IBM 000-082 System x Sales Expert V4 2015-06-25 14:58:18
IBM 000-083 System x and BladeCenter Sales Expert V2 2015-06-25 14:58:18
IBM 000-084 Modular Systems High Performance Servers 2015-06-25 14:58:18
IBM 000-085 System x BladeCenter Technical Support V5 2015-06-25 14:58:18
IBM 000-086 System x High Performance Servers Technical Support V4 2015-06-25 14:58:18
IBM 000-087 IBM System x Technical Expert V6 2015-06-25 14:58:18
IBM 000-089 System x Technical Fundamentals V11 2015-06-25 14:58:18
IBM 000-093 IBM WebSphere Process Server V6.0, System Administration 2015-06-25 14:58:18
IBM 000-094 Application Development with IBM WebSphere Integration Developer V6.0.1 2015-06-25 14:58:18
IBM 000-100 Enterprise Technical Support for AIX and Linux 2015-06-25 14:58:18
IBM 000-101 Virtualization Technical Support for AIX and Linux 2015-06-25 14:58:18
IBM 000-102 High Availability for AIX - Technical Support and Administration 2015-06-25 14:58:18
IBM 000-103 AIX 6.1 Basic Operations 2015-06-25 14:58:18
IBM 000-104 AIX 6.1 Administration 2015-06-25 14:58:18
IBM 000-105 Power Systems with POWER7 and AIX Sales - v1 2015-06-25 14:58:18
IBM 000-106 Power Systems with POWER7 Common Technical Sales Skills - v1 2015-06-25 14:58:18
IBM 000-107 Power Systems with POWER7 and AIX Technical Sales Skills - v1 2015-06-25 14:58:18
IBM 000-108 Enterprise Technical Support for AIX and Linux -v2 2015-06-25 14:58:18
IBM 000-109 Virtualization Technical Support for AIX and Linux - v2 2015-06-25 14:58:18
IBM 000-111 IBM Distributed Systems Storage Solutions Version 7 2015-06-25 14:58:18
IBM 000-112 IBM Systems Storage Sales for DS5000 v1 2015-06-25 14:58:18
IBM 000-113 IBM Systems Storage Solution Design Entry/Midrange for DS series v1 2015-06-25 14:58:18
IBM 000-114 Storage Implementation Entry/Mid Range DS Series v1 2015-06-25 14:58:18
IBM 000-115 Storage Sales V2 2015-06-25 14:58:18
IBM 000-117 IBM Entry Level High Volume 2015-06-25 14:58:18
IBM 000-118 Midrange Storage Technical Support V2 2015-06-25 14:58:18
IBM 000-119 Enterprise Storage Technical Support V2 2015-06-25 14:58:18
IBM 000-120 Academic Associate IBM i 7 Administration 2015-06-25 14:58:18
IBM 000-121 Virtualization Technical Support for IBM i -v1 2015-06-25 14:58:18
IBM 000-122 Power Systems with POWER7 Common Sales Skills -v2 2015-06-25 14:58:18
IBM 000-123 Power Systems with POWER7 and AIX & Linux Sales Skills -v2 2015-06-25 14:58:18
IBM 000-124 Power Systems with POWER7 and IBM i Sales Skills -v2 2015-06-25 14:58:18
IBM 000-129 IBM i 7.1 Administration 2015-06-25 14:58:18
IBM 000-130 IBM Rational ClearCase v7.1 2015-06-25 14:58:18
IBM 000-132 IBM Rational ClearQuest v7.1 2015-06-25 14:58:18
IBM 000-134 Rational Business Developer v7.1 2015-06-25 14:58:18
IBM 000-135 Rational Host Access Transformation Services (HATS) v7.1 2015-06-25 14:58:18
IBM 000-136 Rational Application Developer v7 2015-06-25 14:58:18
IBM 000-137 Advanced Rational Application Developer v7 2015-06-25 14:58:18
IBM 000-138 Rational RequisitePro Exam 2015-06-25 14:58:18
IBM 000-139 AppScan Standard Edition 2015-06-25 14:58:18
IBM 000-142 XML 1.1 and Related Technologies 2015-06-25 14:58:18
IBM 000-151 IBM System x Sales Expert V3 2015-06-25 14:58:18
IBM 000-152 System x Technical Principles V10 2015-06-25 14:58:18
IBM 000-153 System x Sales Specialist V6 2015-06-25 14:58:18
IBM 000-154 Web Developer 2015-06-25 14:58:18
IBM 000-155 System x Server Family Sales V1 2015-06-25 14:58:18
IBM 000-156 System x Server Family Technical Support V1 2015-06-25 14:58:18
IBM 000-163 Infrastructure Sales Leader V1 2015-06-25 14:58:18
IBM 000-164 Infrastructure Technical Designer V1 2015-06-25 14:58:18
IBM 000-169 IBM BPM Blueprint IBM WebSphere Lombardi Edition V7.1, Administration 2015-06-25 14:58:18
IBM 000-170 IBM BPM Blueprint IBM WebSphere Lombardi Edition V7.1, Analysis 2015-06-25 14:58:18
IBM 000-171 IBM BPM Blueprint IBM WebSphere Lombardi Edition V7.1, Development 2015-06-25 14:58:18
IBM 000-172 IBM BPM Blueprint IBM WebSphere Lombardi Edition V7.1, Program Management 2015-06-25 14:58:18
IBM 000-173 IBM BPM Blueprint; IBM WebSphere Lombardi Edition V7.1, Application Development 2015-06-25 14:58:18
IBM 000-175 IBM WebSphere Lombardi Edition V7.2, Development (Entry) 2015-06-25 14:58:18
IBM 000-176 IBM Worklight V5.0.0.3 Mobile Application Development 2015-06-25 14:58:18
IBM 000-178 IBM WebSphere Lombardi Edition V7.2, BPM Development 2015-06-25 14:58:18
IBM 000-180 p5 and pSeries Enterprise Technical Support AIX 5L V5.3 2015-06-25 14:58:18
IBM 000-181 IBM WebSphere ILOG JRules BRMS V7.1, Application Development 2015-06-25 14:58:18
IBM 000-183 IBM WebSphere Mesage Broker V7.0, Solution Development 2015-06-25 14:58:18
IBM 000-184 IBM WebSphere Message Broker V7.0, System Administration 2015-06-25 14:58:18
IBM 000-186 IBM Business Process Manager Express or Standard Edition V7.5.1 BPM Application Development 2015-06-25 14:58:18
IBM 000-188 IBM WebSphere Lombardi Edition V7.2, BPM Program Management 2015-06-25 14:58:18
IBM 000-189 System x Technical Fundamentals V11 Exam 2015-06-25 14:58:18
IBM 000-190 AIX Basic Operations V5 2015-06-25 14:58:18
IBM 000-191 pSeries AIX System Administration 2015-06-25 14:58:18
IBM 000-195 IBM Security QRadar V7.0 MR4 2015-06-25 14:58:18
IBM 000-196 IBM Security QRadar SIEM V7.1 Implementation 2015-06-25 14:58:18
IBM 000-198 IBM Security Access Manager V7.0 Implementation 2015-06-25 14:58:18
IBM 000-200 IBM Storage Sales V1 2015-06-25 14:58:18
IBM 000-201 IBM Midrange Storage Technical Specialist 2015-06-25 14:58:18
IBM 000-202 Storage Enterprise Technical Support 2015-06-25 14:58:18
IBM 000-203 High Volume Storage Fundamentals 2015-06-25 14:58:18
IBM 000-204 Storage Networking Solutions Version 3 2015-06-25 14:58:18
IBM 000-205 High-End Disk Solutions for Mainframe Version 6 2015-06-25 14:58:18
IBM 000-206 High-End Disk Solutions for Open Systems Version 1 2015-06-25 14:58:18
IBM 000-207 High End Taps Solutions Version 5 2015-06-25 14:58:18
IBM 000-208 Open Systems Storage Solutions Version 6 2015-06-25 14:58:18
IBM 000-209 SVC/Virtualization V.1 2015-06-25 14:58:18
IBM 000-210 IBM Storage Networking Solutions, Version 4 2015-06-25 14:58:18
IBM 000-215 IBM WebSphere Commerce V5.6, Implementation 2015-06-25 14:58:18
IBM 000-216 IBM WebSphere Commerce V6.0 Administration 2015-06-25 14:58:18
IBM 000-217 IBM WebSphere Commerce V6.0 Application Development 2015-06-25 14:58:18
IBM 000-218 IBM Sterling B2B Integrator V5.2, Solution Implementation 2015-06-25 14:58:18
IBM 000-219 IBM Sterling Order Management V9.1, Deployment 2015-06-25 14:58:18
IBM 000-220 IBM Sterling ConnectDirect, Administration 2015-06-25 14:58:18
IBM 000-221 AIX 7 Administration 2015-06-25 14:58:18
IBM 000-222 P5 and pSeries Administration and Support for AIX 5L V5.3 2015-06-25 14:58:18
IBM 000-223 System p Administrator 2015-06-25 14:58:18
IBM 000-224 Power Systems with POWER7 Common Technical Sales Skills -v2 2015-06-25 14:58:18
IBM 000-225 Power Systems with POWER7 and AIX & Linux Technical Sales Skills - v2 2015-06-25 14:58:18
IBM 000-226 Power Systems with POWER7 and IBM i Technical Sales Skills -v2 2015-06-25 14:58:18
IBM 000-228 p5 and pSeries Technical Sales Support 2015-06-25 14:58:18
IBM 000-229 IBM System p Solution Sales V5.3 2015-06-25 14:58:18
IBM 000-233 AIX 5L Installation,Backup and System Recovery 2015-06-25 14:58:18
IBM 000-234 AIX 5L Performance and Systems Tuning 2015-06-25 14:58:18
IBM 000-235 AIX 5L Problem Determination 2015-06-25 14:58:18
IBM 000-236 AIX 5L Communications 2015-06-25 14:58:18
IBM 000-237 pSeries HACMP for AIX 5L 2015-06-25 14:58:18
IBM 000-238 IBM p5 and pSeries Technical Sales Support 2015-06-25 14:58:18
IBM 000-239 p5 Solution Sales 2015-06-25 14:58:18
IBM 000-240 IBM Sterling Configurator V9.1, Deployment 2015-06-25 14:58:18
IBM 000-241 IBM Sterling Order Management V9.2, Solution Design 2015-06-25 14:58:18
IBM 000-252 IBM Certified System Administrator - WebSphere Application Server Network Deployment V6.0 2015-06-25 14:58:18
IBM 000-253 WebSphere Application Server Network Deployment V6.1, Core Administration 2015-06-25 14:58:18
IBM 000-255 Developing with IBM Rational Application Developer for WebSphere Software V6.0 2015-06-25 14:58:18
IBM 000-256 Application Development with IBM Rational Application Developer for WebSphere Software 2015-06-25 14:58:18
IBM 000-257 Enterprise Application Development with IBM Rational Application Developer V6.0 2015-06-25 14:58:18
IBM 000-258 Test 258 Web Svcs Dev Rational App Dev for WS Sftwr V6.0.x 2015-06-25 14:58:18
IBM 000-259 i5 iSeries Solution Sales V5R3 2015-06-25 14:58:18
IBM 000-266 AS/400 RPG IV Programmer 2015-06-25 14:58:18
IBM 000-267 AS/400 RPG IV Developer 2015-06-25 14:58:18
IBM 000-268 i5 iSeries RPG ILE Programmer 2015-06-25 14:58:18
IBM 000-270 IBM Business Process Manager Advanced V7.5, Integration Development 2015-06-25 14:58:18
IBM 000-271 IBM Business Process Manager Advanced V7.5.1, Deployment 2015-06-25 14:58:18
IBM 000-272 IBM WebSphere Message Broker V8.0 Solution Development 2015-06-25 14:58:18
IBM 000-273 IBM Business Process Manager Advanced V8.0 Integration Development 2015-06-25 14:58:18
IBM 000-274 IBM WebSphere DataPower SOA Appliances Firmware V5.0 Solution Implementation 2015-06-25 14:58:18
IBM 000-275 Blueworks Live IBM Business Process Manager Express or Standard Edition, V8.0 BPM Analysis 2015-06-25 14:58:18
IBM 000-276 IBM Business Process Manager Express or Standard Edition V8.0, BPM Application Development 2015-06-25 14:58:18
IBM 000-277 IBM WebSphere Message Broker V8.0 System Administration 2015-06-25 14:58:18
IBM 000-278 IBM Worklight V6.0 Mobile Application Development 2015-06-25 14:58:18
IBM 000-280 IBM Cloud Computing Infrastructure Architect V1 2015-06-25 14:58:18
IBM 000-281 Foundations of IBM Cloud Computing Architecture V2 2015-06-25 14:58:18
IBM 000-283 Foundations of IBM Cloud Computing Architecture V3 2015-06-25 14:58:18
IBM 000-285 Developing with IBM WebSphere Studio, V5.0 2015-06-25 14:58:18
IBM 000-286 Application Development with IBM WebSphere Studio, V5.0 2015-06-25 14:58:18
IBM 000-287 Enterprise Application Development with IBM WebSphere Studio, V5.0 2015-06-25 14:58:18
IBM 000-288 Developing Web Services with WebSphere Studio Application Developer V5.1 2015-06-25 14:58:18
IBM 000-289 IBM WebSphere DataPower SOA Appliances, Firmware V3.6.1 2015-06-25 14:58:18
IBM 000-293 WebSphere InterChange Server V4 and Toolset Deployment 2015-06-25 14:58:18
IBM 000-294 IBM WebSphere MQ V5.3 System Administration 2015-06-25 14:58:18
IBM 000-296 IBM WebSphere MQ V5.3 Solution Design 2015-06-25 14:58:18
IBM 000-297 WebSphere MQ V5.3 Solution Development 2015-06-25 14:58:18
IBM 000-298 IBM WebSphere Business Integration Message Broker V5 System Administration 2015-06-25 14:58:18
IBM 000-299 WebSphere Business Integration Message Broker V5, Solution Design 2015-06-25 14:58:18
IBM 000-302 DB2 9 Database and Application Fundamentals - Academic Initiative 2015-06-25 14:58:18
IBM 000-303 IBM Certified Solution Developer - IBM InfoSphere DataStage 2015-06-25 14:58:18
IBM 000-314 IBM WebSphere Message Broker V6.1, System Administration 2015-06-25 14:58:18
IBM 000-315 IBM WebSphere Message Broker V6.1, Solution Development 2015-06-25 14:58:18
IBM 000-316 IBM WebSphere Integration Developer V6.1 Application Development 2015-06-25 14:58:18
IBM 000-317 IBM WebSphere Application Server Network Deployment V8.0, Core Administration 2015-06-25 14:58:18
IBM 000-330 Power Systems Technical Support for AIX and Linux 2015-06-25 14:58:18
IBM 000-331 Power Systems Sales for AIX and Linux 2015-06-25 14:58:18
IBM 000-332 High Availability for AIX - Technical Support and Administration -v2 2015-06-25 14:58:18
IBM 000-340 WebSphere Application Server V5.0, Basic Administration 2015-06-25 14:58:18
IBM 000-341 WebSphere Application Server V5.0, Multiplatform Administration 2015-06-25 14:58:18
IBM 000-347 Websphere Portal V5.0, Deployment And Administration 2015-06-25 14:58:18
IBM 000-348 IBM WebSphere Portal V5, Application Development 2015-06-25 14:58:18
IBM 000-349 IBM WebSphere Transformation Extender V8.2, Application Development 2015-06-25 14:58:18
IBM 000-350 IBM WebSphere Transformation Extender V8.4 Applic Developmen 2015-06-25 14:58:18
IBM 000-351 i5 iSeries Single Systems Administrator V5R3 2015-06-25 14:58:18
IBM 000-355 iseries system administration v5r2 2015-06-25 14:58:18
IBM 000-356 iSeries System Command Operations V5R2 2015-06-25 14:58:18
IBM 000-357 iSeries System Administration V5R3 2015-06-25 14:58:18
IBM 000-365 i5 iSeries LPAR Technical Solutions V5R3 2015-06-25 14:58:18
IBM 000-370 IBM Certified Specialist - Software Quality 2015-06-25 14:58:18
IBM 000-371 Web Services Development for IBM WebSphere Application Server V7.0 2015-06-25 14:58:18
IBM 000-372 IBM WebSphere Business Modeler Advanced V6.2, Business Analysis and Design 2015-06-25 14:58:18
IBM 000-373 IBM WebSphere Business Monitor V6.2, Solution Development 2015-06-25 14:58:18
IBM 000-374 IBM WebSphere MQ V7.0 System Administration 2015-06-25 14:58:18
IBM 000-375 IBM WebSphere Process Server V6.2, System Administration 2015-06-25 14:58:18
IBM 000-376 IBM WebSphere MQ V7.0, Solution Design 2015-06-25 14:58:18
IBM 000-377 IBM WebSphere Application Server Network Deployment V7.0 Core Administration 2015-06-25 14:58:18
IBM 000-378 IBM WebSphere DataPower SOA Appliances, Firmware V3.7.3 2015-06-25 14:58:18
IBM 000-379 IBM WebSphere Integration Developer V6.2, Solution Development 2015-06-25 14:58:18
IBM 000-382 IBM Open Systems Storage Solutions, Version 2 2015-06-25 14:58:18
IBM 000-385 ibm high end tape solutions version3 2015-06-25 14:58:18
IBM 000-386 High-End Disk Solutions, Version 3 2015-06-25 14:58:18
IBM 000-387 IBM Open Systems Storage Solutions, Version 3 2015-06-25 14:58:18
IBM 000-388 Storage Sales, Version 6 2015-06-25 14:58:18
IBM 000-389 IBM TotalStorage Networking and Virtualization Architecture, Version 2 2015-06-25 14:58:18
IBM 000-397 IBM WebSphere Portal V5.1, Deployment and Administration 2015-06-25 14:58:18
IBM 000-399 IBM WebSphere Portal V5.1 Application Development 2015-06-25 14:58:18
IBM 000-400 IBM WebSphere Operational Decision Management V8.0 Application Development 2015-06-25 14:58:18
IBM 000-415 IBM WebSphere IIS DataStage Enterprise Edition v7.5 2015-06-25 14:58:18
IBM 000-416 WebSphere IIS QualityStage v7.5 2015-06-25 14:58:18
IBM 000-417 WebSphere Information Analyzer v8.0 2015-06-25 14:58:18
IBM 000-418 InfoSphere DataStage v8.0 2015-06-25 14:58:18
IBM 000-419 IBM InfoSphere Quality Stage v8 Examination 2015-06-25 14:58:18
IBM 000-420 IBM InfoSphere MDM Server v9.0 2015-06-25 14:58:18
IBM 000-421 IBM Certified Solution Developer - InfoSphere DataStage v8.5 2015-06-25 14:58:18
IBM 000-422 InfoSphere QualityStage v8.5 2015-06-25 14:58:18
IBM 000-423 Information Analyzer v8.5 2015-06-25 14:58:18
IBM 000-424 IBM zSeries Sales V1 2015-06-25 14:58:18
IBM 000-426 IBM System z Technical Support 2015-06-25 14:58:18
IBM 000-427 IBM System z Solution Sales V3 2015-06-25 14:58:18
IBM 000-428 IBM System z Technical Support V3 2015-06-25 14:58:18
IBM 000-430 IBM Tivoli Netcool Service Quality Manager V4.1.1 Implementation 2015-06-25 14:58:18
IBM 000-431 IBM Tivoli Storage Manager V5.5 Administration 2015-06-25 14:58:18
IBM 000-432 IBM Tivoli Storage Manager V5.5 Operator 2015-06-25 14:58:18
IBM 000-433 IBM Tivoli Storage Manager V5.5 Implementation 2015-06-25 14:58:18
IBM 000-434 IBM Tivoli Netcool Performance Manager for Wireless V9.1.2 Implementation 2015-06-25 14:58:18
IBM 000-435 IBM Tivoli Workload Scheduler V8.4 Implementation 2015-06-25 14:58:18
IBM 000-436 IBM Tivoli Business Service Manager V4.1.1 Implementation 2015-06-25 14:58:18
IBM 000-438 Applying Fundamentals of Tivoli Business Automation Management 2008 2015-06-25 14:58:18
IBM 000-439 Fundamentals of Enterprise Solutions Using IBM Tivoli Storage 2008 2015-06-25 14:58:18
IBM 000-440 IBM Content Manager Ondemand Multiplatform 2015-06-25 14:58:18
IBM 000-442 DB2 Content Manager V8 2015-06-25 14:58:18
IBM 000-443 DB2 Content Manager V8.3 2015-06-25 14:58:18
IBM 000-444 IBM Content Management - OnDemand 2015-06-25 14:58:18
IBM 000-445 System Administrator - Document Manager 2015-06-25 14:58:18
IBM 000-446 Content Manager OnDemand for i5/OS 2015-06-25 14:58:18
IBM 000-447 CommonStore Email Archiving and Discovery 2015-06-25 14:58:18
IBM 000-448 IBM Content Collector (ICC) v2.2 2015-06-25 14:58:18
IBM 000-450 Midrange Storage Sales V1 2015-06-25 14:58:18
IBM 000-451 Midrange Storage Technical Support V3 2015-06-25 14:58:18
IBM 000-452 IBM Storwize V7000 Technical Solutions V2 2015-06-25 14:58:18
IBM 000-453 IBM System Storage DS8000 Technical Solutions V3 2015-06-25 14:58:18
IBM 000-454 IBM High-End Tape Technical Solutions V7 2015-06-25 14:58:18
IBM 000-455 High Volume Storage Fundamentals V3 2015-06-25 14:58:18
IBM 000-456 IBM XIV Storage System Technical Solutions V4 2015-06-25 14:58:18
IBM 000-463 IBM InfoSphere Guardium 2015-06-25 14:58:18
IBM 000-470 IBM Unica Campaign V8.5 2015-06-25 14:58:18
IBM 000-474 IBM Tealeaf Customer Experience Management V8.7, Business Analysis 2015-06-25 14:58:18
IBM 000-484 Enterprise Connectivity with J2EE V1.3 2015-06-25 14:58:18
IBM 000-486 Object-Oriented Analysis and Design with UML Test 2015-06-25 14:58:18
IBM 000-501 IBM Maximo Asset Management V7.5 Infrastructure Implementation 2015-06-25 14:58:18
IBM 000-502 IBM Endpoint Manager for Mobile Devices V2.1 Implementation 2015-06-25 14:58:18
IBM 000-503 IBM Tivoli Monitoring V6.3 Fundamentals 2015-06-25 14:58:18
IBM 000-512 DB2 UDB V7.1 Family Fundamentals 2015-06-25 14:58:18
IBM 000-513 DB2 UDB V7.1 for UNIX, Linux, Windows and OS/2 Database Administration 2015-06-25 14:58:18
IBM 000-514 DB2 UDB V7.1 Family Application Development 2015-06-25 14:58:18
IBM 000-516 DB/2 Administration for OS/390 2015-06-25 14:58:18
IBM 000-529 IBM WebSphere ILOG JRules V7.0, Application Development 2015-06-25 14:58:18
IBM 000-530 IBM Internet Security Systems Technical Test v1 2015-06-25 14:58:18
IBM 000-532 Tivoli Storage Manager v6.2 Fundamentals 2015-06-25 14:58:18
IBM 000-533 IBM Security SiteProtector V2.0 SP8.1 System 2015-06-25 14:58:18
IBM 000-534 IBM Tivoli Storage Manager FastBack V6.1.1 Implementation 2015-06-25 14:58:18
IBM 000-535 IBM Certified Specialist- Advanced Manufacturing 2015-06-25 14:58:18
IBM 000-536 Fundamentals of Applying Tivoli Security and Compliance Management Solutions V3 2015-06-25 14:58:18
IBM 000-537 IBM Tivoli Directory Server V6.3 Implementation 2015-06-25 14:58:18
IBM 000-538 IBM Tivoli Monitoring V6.2.2 Implementation 2015-06-25 14:58:18
IBM 000-539 IBM Tivoli Storage Manager V6.2 Administration 2015-06-25 14:58:18
IBM 000-540 IBM PureData System for Analytics v7.0 2015-06-25 14:58:18
IBM 000-541 DB2 9.7 DBA for Linux UNIX and Windows 2015-06-25 14:58:18
IBM 000-543 DB2 9.7 Application Development 2015-06-25 14:58:18
IBM 000-544 DB2 9.7 Advanced DBA for LUW 2015-06-25 14:58:18
IBM 000-545 IBM Certified Developer - DB2 9.7 SQL Procedure Developer 2015-06-25 14:58:18
IBM 000-546 DB2 9.7 Database Administrator for Linux UNIX or Windows Upgrade 2015-06-25 14:58:18
IBM 000-550 IBM solidDB and IBM solidDB Universal Cache 2015-06-25 14:58:18
IBM 000-551 IBM Optim Implementation for Distributed Systems (2009) 2015-06-25 14:58:18
IBM 000-552 IBM InfoSphere Optim for Distributed Systems - V7.3.1 2015-06-25 14:58:18
IBM 000-553 Netezza Performance Software v6 2015-06-25 14:58:18
IBM 000-555 IBM Informix Dynamic Server 11.50 Fundamentals 2015-06-25 14:58:18
IBM 000-556 Informix 11.50 Application Developer 2015-06-25 14:58:18
IBM 000-558 Informix 11.70 Fundamentals 2015-06-25 14:58:18
IBM 000-559 IBM Certified Developer - IBM Informix Genero v1 2015-06-25 14:58:18
IBM 000-560 IBM Tivoli Endpoint Manager V8.1 Implementation 2015-06-25 14:58:18
IBM 000-561 IBM Security Network Intrusion Prevention System V4.3 Implementation 2015-06-25 14:58:18
IBM 000-562 IBM Tivoli Storage Productivity Center V4.2 Implementation 2015-06-25 14:58:18
IBM 000-563 Tivoli Directory Integrator V7.1 2015-06-25 14:58:18
IBM 000-564 Fundamentals of Applying Tivoli Storage Solutions V3 2015-06-25 14:58:18
IBM 000-565 IBM Tivoli Network Manager IP Edition V3.9 Implementation 2015-06-25 14:58:18
IBM 000-567 IBM Tivoli Provisioning Manager V7.2.0.2 Implementation 2015-06-25 14:58:18
IBM 000-568 IBM Tivoli Composite Application Manager for Application Diagnostics V7.1 Implementation 2015-06-25 14:58:18
IBM 000-569 IBM Tivoli Workload Scheduler V8.6 Implementation 2015-06-25 14:58:18
IBM 000-570 IBM Maximo Asset Management V7.5 Implementation 2015-06-25 14:58:18
IBM 000-571 IBM Tivoli Process Automation Engine V7.5 Implementation 2015-06-25 14:58:18
IBM 000-572 IBM Tivoli Monitoring V6.2.3 Administration 2015-06-25 14:58:18
IBM 000-573 IBM Tivoli Netcool/Impact V6.1 Implementation 2015-06-25 14:58:18
IBM 000-574 IBM Tivoli Business Service Manager V6.1 2015-06-25 14:58:18
IBM 000-575 IBM Tivoli Federated Identity Manager V6.2.2 Implementation 2015-06-25 14:58:18
IBM 000-577 IBM Tivoli Endpoint Manager V8.2 Implementation 2015-06-25 14:58:18
IBM 000-578 Fundamentals of Applying Tivoli Service Availability and Performance Management Solutions V3 2015-06-25 14:58:18
IBM 000-579 IBM Tivoli Storage Manager V6.3 Fundamentals 2015-06-25 14:58:18
IBM 000-580 IBM Case Manager V5.0 2015-06-25 14:58:18
IBM 000-581 IBM FileNet Content Manager V5.1 2015-06-25 14:58:18
IBM 000-582 IBM FileNet Business Process Manager V5.1 2015-06-25 14:58:18
IBM 000-583 IBM Content Analytics and Search V2.2 2015-06-25 14:58:18
IBM 000-585 IBM Datacap Taskmaster Capture V8.1 2015-06-25 14:58:18
IBM 000-586 IBM Case Manager V5.1 2015-06-25 14:58:18
IBM 000-587 IBM FileNet P8 V5.1 2015-06-25 14:58:18
IBM 000-588 IBM Datacap Taskmaster Capture V8.1 Solution Design 2015-06-25 14:58:18
IBM 000-590 IBM Tivoli Storage Manager V6.3 Implementation 2015-06-25 14:58:18
IBM 000-591 Fundamentals of Applying Tivoli Service Delivery and Process Automation Solutions V3 2015-06-25 14:58:18
IBM 000-594 IBM Tivoli Enterprise Console V3.9 Implementation 2015-06-25 14:58:18
IBM 000-596 IBM Security Access Manager for Enterprise Single Sign-On V8.2 Implementation 2015-06-25 14:58:18
IBM 000-597 IBM TRIRIGA Application Platform V3.2.1 Application Development 2015-06-25 14:58:18
IBM 000-598 IBM Tivoli Storage Manager V6.3 Administration 2015-06-25 14:58:18
IBM 000-599 IBM Tivoli Storage Productivity Center V5.1 Implementation 2015-06-25 14:58:18
IBM 000-600 System z Solution Sales V4 2015-06-25 14:58:18
IBM 000-601 IBM System z Sales V5 2015-06-25 14:58:18
IBM 000-602 IBM System z Technical V4 2015-06-25 14:58:18
IBM 000-603 IBM System z Solution Sales V6 2015-06-25 14:58:18
IBM 000-604 IBM System z Technical V5 2015-06-25 14:58:18
IBM 000-605 IBM WebSphere Enterprise Service Bus V7.0, Integration Development 2015-06-25 14:58:18
IBM 000-606 IBM WebSphere Business Modeler Advanced Edition V7.0, Business Analysis and Design 2015-06-25 14:58:18
IBM 000-607 IBM WebSphere Process Server V7.0, Integration Development 2015-06-25 14:58:18
IBM 000-608 IBM WebSphere Process Server V7.0, Deployment 2015-06-25 14:58:18
IBM 000-609 IBM WebSphere Data Power SOA Applicances V3.8.1 Solution IMP 2015-06-25 14:58:18
IBM 000-610 DB2 10.1 Fundamentals 2015-06-25 14:58:18
IBM 000-611 DB2 10.1 DBA for Linux, UNIX, and Windows 2015-06-25 14:58:18
IBM 000-612 IBM Certified Database Administrator DB-2 10 for z/OS 2015-06-25 14:58:18
IBM 000-614 DB2 10.1 Advanced DBA for Linux UNIX and Windows 2015-06-25 14:58:18
IBM 000-617 DB2 10 System Administrator for z/OS 2015-06-25 14:58:18
IBM 000-619 IBM Informix 12.10 System Administrator 2015-06-25 14:58:18
IBM 000-622 System z Business Resiliency Solution Selling 2015-06-25 14:58:18
IBM 000-623 System z Cloud and Linux Solution Selling 2015-06-25 14:58:18
IBM 000-630 ClearCase for Windows 2015-06-25 14:58:18
IBM 000-631 ClearCase for UNIX 2015-06-25 14:58:18
IBM 000-632 ClearQuest 2015-06-25 14:58:18
IBM 000-633 Object Oriented Analysis and Design - Part 1 2015-06-25 14:58:18
IBM 000-634 Object Oriented Analysis and Design - Part 2 2015-06-25 14:58:18
IBM 000-635 Fundamentals of Rational Rose 2015-06-25 14:58:18
IBM 000-636 Requirements Management with Use Cases - Part 1 2015-06-25 14:58:18
IBM 000-637 Requirements Management with Use Cases - Part 2 2015-06-25 14:58:18
IBM 000-638 Rational RequisitePro 2015-06-25 14:58:18
IBM 000-639 Rational Unified Process 2015-06-25 14:58:18
IBM 000-640 Test Management 2015-06-25 14:58:18
IBM 000-641 Robot 2015-06-25 14:58:18
IBM 000-642 XDE Tester 2015-06-25 14:58:18
IBM 000-643 UCM Essentials 2015-06-25 14:58:18
IBM 000-645 XDE.NET 2015-06-25 14:58:18
IBM 000-646 Rational Manual Tester 2015-06-25 14:58:18
IBM 000-647 Rational Performance Tester 2015-06-25 14:58:18
IBM 000-648 Rational Portfolio Manager 2015-06-25 14:58:18
IBM 000-649 Rational Software Architect 2015-06-25 14:58:18
IBM 000-651 Fundamentals of Applying Maximo Asset Management Solutions V3 2015-06-25 14:58:18
IBM 000-652 IBM SmartCloud Control Desk V7.5 Fundamentals 2015-06-25 14:58:18
IBM 000-654 IBM Tivoli Application Dependency Discovery Manager V7.2.1.3 2015-06-25 14:58:18
IBM 000-656 IBM SmartCloud Control Desk V7.5 Service Request Management Implementation 2015-06-25 14:58:18
IBM 000-657 IBM Tivoli Netcool/OMNIbus V7.4 Implementation 2015-06-25 14:58:18
IBM 000-664 SOA Fundamentals 2015-06-25 14:58:18
IBM 000-667 Architectural Design of SOA Solutions 2015-06-25 14:58:18
IBM 000-669 SOA Fundamentals [2008] 2015-06-25 14:58:18
IBM 000-670 xSeries Sales Exam 2015-06-25 14:58:18
IBM 000-671 xSeries Technical Principles 2015-06-25 14:58:18
IBM 000-695 Fundamentals of Enterprise Solutions Using IBM Tivoli Security 2015-06-25 14:58:18
IBM 000-700 IBM DB2 UDB V8.1 Family Fundamentals 2015-06-25 14:58:18
IBM 000-701 IBM DB2 UDB V8.1 for Linux, UNIX, and Windows Database Administration 2015-06-25 14:58:18
IBM 000-702 DB2 UDB V8.1 for z/OS Database Administration 2015-06-25 14:58:18
IBM 000-703 DB2 UDB V8.1 Family Application Development 2015-06-25 14:58:18
IBM 000-704 DB2 UDB V8.1 for Linux, UNIX and Windows Advanced Database Administration 2015-06-25 14:58:18
IBM 000-705 DB2 Business Intelligence Solutions V8 2015-06-25 14:58:18
IBM 000-706 DB2 UDB V8.1 for Linux, UNIX, and Windows Database Administration Upgrade 2015-06-25 14:58:18
IBM 000-710 U2 UniData Administrator 2015-06-25 14:58:18
IBM 000-711 U2 UniData V6.1 for UNIX & Windows Administration 2015-06-25 14:58:18
IBM 000-713 U2 Family Application Development 2015-06-25 14:58:18
IBM 000-714 U2 UniVerse V10.1 for UNIX & Windows Administration 2015-06-25 14:58:18
IBM 000-715 Alphablox 2015-06-25 14:58:18
IBM 000-716 DB2 Data Warehouse Edition V9.1 2015-06-25 14:58:18
IBM 000-718 IBM U2 UniVerse V10.2 Administration 2015-06-25 14:58:18
IBM 000-719 InfoSphere Warehouse V9.5 2015-06-25 14:58:18
IBM 000-723 IBM WebSphere Commerce V7.0 Application Development 2015-06-25 14:58:18
IBM 000-724 IBM WebSphere Commerce V7.0, System Administration 2015-06-25 14:58:18
IBM 000-730 DB2 9 Family Fundamentals 2015-06-25 14:58:18
IBM 000-731 DB2 9 DBA for Linux UNIX and Windows 2015-06-25 14:58:18
IBM 000-732 DB2 9 DBA for z/OS 2015-06-25 14:58:18
IBM 000-733 DB2 9 Application Developer 2015-06-25 14:58:18
IBM 000-734 DB2 9 Advanced Database Administrator for Linux UNIX and Windows 2015-06-25 14:58:18
IBM 000-735 DB2 9.5 SQL Procedure Developer 2015-06-25 14:58:18
IBM 000-736 DB2 9 Database Administrator for Linux UNIX and Windows Upgrade 2015-06-25 14:58:18
IBM 000-737 DB2 9 System Administrator for z/OS Exam 2015-06-25 14:58:18
IBM 000-740 IBM Storage Networking Solutions Version1 2015-06-25 14:58:18
IBM 000-741 IBM High-End Disk Solutions. Version 4 2015-06-25 14:58:18
IBM 000-742 IBM Open Systems Storage Solutions Version 4 2015-06-25 14:58:18
IBM 000-743 IBM Storage Sales, Version 7 2015-06-25 14:58:18
IBM 000-744 DS4000 Technical Version 1 2015-06-25 14:58:18
IBM 000-745 Storage Networking Solutions Version 2 2015-06-25 14:58:18
IBM 000-746 High-End Disk Solutions Version 5 2015-06-25 14:58:18
IBM 000-747 Open Systems Storage Solutions Version 5 2015-06-25 14:58:18
IBM 000-748 IBM Storage Sales Version 8 2015-06-25 14:58:18
IBM 000-749 High End Tape Solutions Version 4 2015-06-25 14:58:18
IBM 000-750 Retail Store Solution Sales V3 2015-06-25 14:58:18
IBM 000-751 Retail Store Technical Solutions 2015-06-25 14:58:18
IBM 000-752 IBM Certified Specialist - Retail Store Solution Sales V4 2015-06-25 14:58:18
IBM 000-753 Retail Store Solutions - 4690 Technical Solutions 2015-06-25 14:58:18
IBM 000-754 Retail Store Solutions - Windows Technical Solutions 2015-06-25 14:58:18
IBM 000-765 Systems Management Technical V1 2015-06-25 14:58:18
IBM 000-771 IBM Tivoli Provisioning Manager with Orchestration V3.1 Implementation 2015-06-25 14:58:18
IBM 000-773 IBM Tivoli Data Warehouse V1.2 Implementation 2015-06-25 14:58:18
IBM 000-774 IBM Tivoli SAN Manager V1.3 Implementation 2015-06-25 14:58:18
IBM 000-775 Applying Fundamentals of IBM Tivoli On Demand Automation 2015-06-25 14:58:18
IBM 000-778 IBM Tivoli License Manager V2.1 Implementation 2015-06-25 14:58:18
IBM 000-779 IBM Tivoli Workload Scheduler V8.2 Implementation 2015-06-25 14:58:18
IBM 000-780 IBM PureFlex System Sales V1 2015-06-25 14:58:18
IBM 000-781 PureFlex Technical Support V1 2015-06-25 14:58:18
IBM 000-782 PureFlex Sales V2 2015-06-25 14:58:18
IBM 000-783 IBM PureFlex Technical Support V2 2015-06-25 14:58:18
IBM 000-784 IBM PureFlex Technical Expert V1 2015-06-25 14:58:18
IBM 000-787 IBM Tivoli Business Sys MGR V3.1 Distributed Implementation 2015-06-25 14:58:18
IBM 000-793 ibm tivoli security compliance manager v5.1 implementation 2015-06-25 14:58:18
IBM 000-798 ibm tivoli monitoring for transaction perf v5.2 implement 2015-06-25 14:58:18
IBM 000-799 IBM Tivoli Storage Manager V5.3 Implementation 2015-06-25 14:58:18
IBM 000-806 IBM WebSphere Application Server Network Deployment V6.1, Advanced Administration 2015-06-25 14:58:18
IBM 000-807 Web Services Development for IBM WebSphere Application Server V6.1 2015-06-25 14:58:18
IBM 000-816 IBM Certified for On Demand Business Solution Sales 2015-06-25 14:58:18
IBM 000-817 IBM Certified for On Demand Business - Solution Design V2 2015-06-25 14:58:18
IBM 000-818 IBM Certified for On Demand Business-Solution Advisor V2 2015-06-25 14:58:18
IBM 000-819 Rational Application Developer V8 Associate 2015-06-25 14:58:18
IBM 000-820 Rational Team Concert V4 2015-06-25 14:58:18
IBM 000-821 Collaborative Lifecycle Management 2015-06-25 14:58:18
IBM 000-822 Rational Requirements Composer V3 2015-06-25 14:58:18
IBM 000-823 Rational Quality Manager V3 2015-06-25 14:58:18
IBM 000-833 Object Oriented Analysis and Design - Part 1 (Analysis) 2015-06-25 14:58:18
IBM 000-834 Object Oriented Analysis and Design - Part 2 (Design) 2015-06-25 14:58:18
IBM 000-839 Rational Unified Process v7.0 2015-06-25 14:58:18
IBM 000-842 Rational Functional Tester for Java 2015-06-25 14:58:18
IBM 000-850 i5 iSeries Domino Solution Sales V5R3 2015-06-25 14:58:18
IBM 000-851 i5 Series Linux Solution Sales V5R3 2015-06-25 14:58:18
IBM 000-852 i5 iSeries Windows Integration Solution Sales V5R3 2015-06-25 14:58:18
IBM 000-853 i5 iSeries WebSphere Solution Sales V5R3 2015-06-25 14:58:18
IBM 000-854 System i IT Simplification - Windows Linux and AIX 5L Solution Sales Version 1 2015-06-25 14:58:18
IBM 000-855 i5 iSeries Domino Technical Solutions V5R3 2015-06-25 14:58:18
IBM 000-856 eServer i5 iSeries Linux Technical Solutions V5R3 2015-06-25 14:58:18
IBM 000-857 Windows Integration for iSeries Technical Solutions V5R3 2015-06-25 14:58:18
IBM 000-858 i5 iSeries WebSphere Technical Solutions V5R3 2015-06-25 14:58:18
IBM 000-859 iSeries Solution Sales (including eServer i5 & i5/OS V5R3) 2015-06-25 14:58:18
IBM 000-863 System i IT Simplification Linux Technical V5R4 2015-06-25 14:58:18
IBM 000-864 System i IT Simplification Integrated BladeCenter and System x Technical V5R4 2015-06-25 14:58:18
IBM 000-866 IBM i5 iSeries Technical Solutions Designer V5R3 2015-06-25 14:58:18
IBM 000-867 i5 iSeries Technical Solutions Implementer V5R3 2015-06-25 14:58:18
IBM 000-868 i5 iSeries Technical Solutions Designer V5R3 2015-06-25 14:58:18
IBM 000-869 System i Technical Solutions Implementation (including i5/OS V5R4) 2015-06-25 14:58:18
IBM 000-870 IBM Tivoli Configuration Manager V4.2.2 Implementation 2015-06-25 14:58:18
IBM 000-872 IBM Tivoli Storage Manager V5.2 Implementation 2015-06-25 14:58:18
IBM 000-873 IBM TotalStorage Productivity Center for Data V2.1 Implementation 2015-06-25 14:58:18
IBM 000-874 Workflow and Automation Package Design and Development for V3.1 Implementation 2015-06-25 14:58:18
IBM 000-875 IBM Tivoli Federated Identity Manager V6.0 Implementation 2015-06-25 14:58:18
IBM 000-876 IBM Tivoli Access Manager for e-business V6.0 Implementation 2015-06-25 14:58:18
IBM 000-877 IBM Tivoli 877 IBM Identity Manager V4.6 2015-06-25 14:58:18
IBM 000-879 IBM Tivoli Provisioning Mgr Express V4.1 for Software Dist 2015-06-25 14:58:18
IBM 000-881 IBM Tivoli Storage Manager V5 Administration 2015-06-25 14:58:18
IBM 000-883 IBM Tivoli Composite Appl Mgr for WebSphere v6.0 Implement 2015-06-25 14:58:18
IBM 000-884 IBM Tivoli Identity Manager Express V4.6 Specialist 2015-06-25 14:58:18
IBM 000-885 IBM Tivoli Storage Manager Express V5.3.7 2015-06-25 14:58:18
IBM 000-886 ibm tivoli monitoring v5.1.1 to v5.1.2 implementation 2015-06-25 14:58:18
IBM 000-887 IBM Tivoli Monitoring Express V6.1 2015-06-25 14:58:18
IBM 000-888 IBM Tivoli Workload Scheduler V8.3 Implementation 2015-06-25 14:58:18
IBM 000-889 Fundamentals of Ent Solutions Using IBM Tivoli Security2007 2015-06-25 14:58:18
IBM 000-890 IBM Tivoli Monitoring V6.1 Implementation 2015-06-25 14:58:18
IBM 000-891 IBM Tivoli Federated Identity Manager V6.1 2015-06-25 14:58:18
IBM 000-892 IBM Tivoli NetView V7.1.4 Implementation 2015-06-25 14:58:18
IBM 000-894 IBM Tivoli Storage Manager V5.4 Administration 2015-06-25 14:58:18
IBM 000-897 IBM Tivoli Network Manager IP Edition V3.7 Implementation 2015-06-25 14:58:18
IBM 000-898 IBM Tivoli Provisioning Manager V5.1 Implementation 2015-06-25 14:58:18
IBM 000-899 IBM Tivoli Storage Manager V5.4 Implementation 2015-06-25 14:58:18
IBM 000-900 IBM Tivoli TotalStorage Productivity Center V3.1 2015-06-25 14:58:18
IBM 000-901 IBM Tivoli Netcool/OMNIbus V7.1 Implementation 2015-06-25 14:58:18
IBM 000-904 IBM Tivoli Storage Manager v5.3 & v5.4 Operator 2015-06-25 14:58:18
IBM 000-905 IBM Tivoli Composite Application Manager for WebSphere V6.1 2015-06-25 14:58:18
IBM 000-907 IBM TotalStorage Productivity Center V3.3 Implementation 2015-06-25 14:58:18
IBM 000-908 IBM Tivoli Monitoring V6.2 Implementation 2015-06-25 14:58:18
IBM 000-910 Managing and Optimizing Informix Dynamic Server Databases 2015-06-25 14:58:18
IBM 000-911 System and Administration Informix Dynamic Server 2015-06-25 14:58:18
IBM 000-913 Informix 4GL Development 2015-06-25 14:58:18
IBM 000-914 System Administration for Red Brick Decision Server Version 6 2015-06-25 14:58:18
IBM 000-915 System Administration for IBM Informix Dynamic Server V9 2015-06-25 14:58:18
IBM 000-917 ystem Administration for IBM Informix Dynamic Server V10 2015-06-25 14:58:18
IBM 000-918 System Administration for IBM Informix Dynamic Server V11 2015-06-25 14:58:18
IBM 000-919 IBM Certified System Administrator -Informix Server 11.70 2015-06-25 14:58:18
IBM 000-920 IBM Tivoli Composite Application Manager for Response Time V6.2 Implementation 2015-06-25 14:58:18
IBM 000-921 IBM Tivoli Monitoring V6.2 Administration 2015-06-25 14:58:18
IBM 000-922 IBM Tivoli Netcool/Webtop V2.0 2015-06-25 14:58:18
IBM 000-923 Netcool/Precision IP V3.6 2015-06-25 14:58:18
IBM 000-927 IBM Tivoli Netcool/Proviso V4.4.1 Administration 2015-06-25 14:58:18
IBM 000-928 IBM Tivoli Directory Server V6.1 Implementation 2015-06-25 14:58:18
IBM 000-931 IBM Tivoli Netcool/Proviso V4.4.1 Implementation 2015-06-25 14:58:18
IBM 000-933 IBM Tivoli Netcool/OMNIbus V7.2 Implementation 2015-06-25 14:58:18
IBM 000-934 IBM Tivoli Identity Manager V5.0 Implementation 2015-06-25 14:58:18
IBM 000-935 IBM Tivoli Workload Scheduler for z/OS V8.3 Administration 2015-06-25 14:58:18
IBM 000-936 IBM Tivoli Access Manager for e-business V6.1 Implementation 2015-06-25 14:58:18
IBM 000-937 IBM Tivoli Compliance Insight Manager V8.5 Implementation 2015-06-25 14:58:18
IBM 000-938 IBM Tivoli Netcool Impact V4.0 Implementation 2015-06-25 14:58:18
IBM 000-939 IBM Tivoli Change and Configuration Management Database V7.1.1 2015-06-25 14:58:18
IBM 000-955 High Volume Storage Fundamentals V2 2015-06-25 14:58:18
IBM 000-956 IBM Storwize V7000 Technical Solutions V1 2015-06-25 14:58:18
IBM 000-957 IBM XIV Storage System Technical Solutions V3 2015-06-25 14:58:18
IBM 000-958 Enterprise Storage Technical Support V3 2015-06-25 14:58:18
IBM 000-959 Enterprise Storage Sales V3 2015-06-25 14:58:18
IBM 000-960 IBM Storage Sales Version 9 2015-06-25 14:58:18
IBM 000-961 Storage Sales for High-End Disk Version 1 2015-06-25 14:58:18
IBM 000-962 Storage Sales for High-End Tape Version 1 2015-06-25 14:58:18
IBM 000-965 XIV Storage System Technical Solutions Version 1 2015-06-25 14:58:18
IBM 000-966 XIV Storage System Technical Solutions Version 2 2015-06-25 14:58:18
IBM 000-967 XIV Replication and Migration V1 2015-06-25 14:58:18
IBM 000-968 High-End Disk for Open Systems V2 2015-06-25 14:58:18
IBM 000-969 High-End Tape Solutions V6 2015-06-25 14:58:18
IBM 000-971 System I Administrator v5.07.11 2015-06-25 14:58:18
IBM 000-972 ILE RPG Programmer 2015-06-25 14:58:18
IBM 000-973 Power Systems Sales for IBM i Operating System 2015-06-25 14:58:18
IBM 000-974 Power Systems Technical Support for i 2015-06-25 14:58:18
IBM 000-975 IBM i 6.1 Basic Operations 2015-06-25 14:58:18
IBM 000-976 IBM i 6.1 Administration 2015-06-25 14:58:18
IBM 000-977 Power Systems with POWER7 Common Sales Skills - v1 2015-06-25 14:58:18
IBM 000-978 Power Systems with POWER7 and IBM i Sales Skills - v1 2015-06-25 14:58:18
IBM 000-979 Power Systems with POWER7 and IBM i Technical Sales Skills - v1 2015-06-25 14:58:18
IBM 000-990 IBM WebSphere Business Modeler Advanced V6.0 , Business Analysis and Design 2015-06-25 14:58:18
IBM 000-992 IBM WebSphere Business Modeler Advanced V6.1, Business Analysis and Design 2015-06-25 14:58:18
IBM 000-993 IBM WebSphere InterChange Server V4.3 and Toolset, Deployment 2015-06-25 14:58:18
IBM 000-994 IBM WebSphere MQ V6.0,System Administration 2015-06-25 14:58:18
IBM 000-995 IBM WebSphere Process Server V6.1, System Administration 2015-06-25 14:58:18
IBM 000-996 IBM WebSphere MQ V6.0, Solution Design 2015-06-25 14:58:18
IBM 000-997 IBM WebSphere Message Broker V6.0 Solution Development 2015-06-25 14:58:18
IBM 000-998 WebSphere Message Broker V6.0 System Administration 2015-06-25 14:58:18
IBM 000-G01 IBM EMEA Maintenance and Technical Support Mastery Test v1 2015-06-25 14:58:18
IBM 000-G40 IBM SmartCloud Enterprise+ (SCE+) Sales Mastery Test 2015-06-25 14:58:18
IBM 000-J02 IBM Sys.i Entry Level Bus.Partners - Sales Mastery Test V1 2015-06-25 14:58:18
IBM 000-J03 IBM Sys I Entry Level for BPs - Tech. Mastery Test V1 2015-06-25 14:58:18
IBM 000-M01 IBM Information Management Content Management & Discovery Technical Sales Mastery Test v1 2015-06-25 14:58:18
IBM 000-M02 IBM Tivoli Monitoring Technical Sales Mastery Test v1 2015-06-25 14:58:18
IBM 000-M03 IBM Tivoli Composite Application Manager Technical Sales Mastery Test v1 2015-06-25 14:58:18
IBM 000-M04 IBM WebSphere Application Server Technical Sales Mastery Test v1 2015-06-25 14:58:18
IBM 000-M05 IBM WebSphere MQ Technical Sales Mastery Test v1 2015-06-25 14:58:18
IBM 000-M06 WebShere Business Modeler Tech Sales Mastery Test v1 2015-06-25 14:58:18
IBM 000-M07 IBM Tivoli Storage Manager Technical Sales Mastery Test v1 2015-06-25 14:58:18
IBM 000-M08 Tivoli Identity Manager Technical Sales Mastery Test v1 2015-06-25 14:58:18
IBM 000-M09 Workplace Forms Technical Sales Mastery Test v1 2015-06-25 14:58:18
IBM 000-M10 WebSphere Portlet Factory Tech Sales Mastery Test v1 2015-06-25 14:58:18
IBM 000-M11 IBM Lotus Notes & Domino V7 Technical Sales Mastery V1 2015-06-25 14:58:18
IBM 000-M12 IBM Workplace Content Management Technical Sales Mastery Test V1 2015-06-25 14:58:18
IBM 000-M13 IBM WebSphere Portal Technical Sales Mastery Test v1 2015-06-25 14:58:18
IBM 000-M14 Rational Architecture Management Technical Sales Mastery v1 2015-06-25 14:58:18
IBM 000-M155 M155 Information Management Solution Sales Mastery Test v3 2015-06-25 14:58:18
IBM 000-M157 IBM Rational Foundational (IT) Sales Mastery Test v1 2015-06-25 14:58:18
IBM 000-M16 IBM Rational Change & Release Management Technical Sales Mastery v1 2015-06-25 14:58:18
IBM 000-M17 IBM Rational Process & Portfolio Mgmt Tech Sales Mastery v1 2015-06-25 14:58:18
IBM 000-M18 IBM Information Management Informix Dynamic Server Technical Sales Mastery v1 2015-06-25 14:58:18
IBM 000-M19 IBM Information Management DB2 9 Warehouse Technical Sales Mastery Test V1 2015-06-25 14:58:18
IBM 000-M191 Tivoli Storage Sales Mastery Test v2 2015-06-25 14:58:18
IBM 000-M194 IBM InfoSphere Guardium Sales Mastery Test v1 2015-06-25 14:58:18
IBM 000-M195 IBM Security Solutions Sales Mastery Test v1 2015-06-25 14:58:18
IBM 000-M196 Social Software and Unified Communications Sales Mastery Test v1 2015-06-25 14:58:18
IBM 000-M197 IBM WebSphere Portal Family Sales Mastery Test v1 2015-06-25 14:58:18
IBM 000-M198 IBM Lotus Notes & Domino Sales Mastery Test v1 2015-06-25 14:58:18
IBM 000-M20 IBM Information Management DB2 Technical Sales Mastery v1 2015-06-25 14:58:18
IBM 000-M21 IBM IM Information Server Technical Sales Mastery Test v1 2015-06-25 14:58:18
IBM 000-M22 IBM Rational Application Developer Technical Sales Mastery v1 2015-06-25 14:58:18
IBM 000-M220 IBM Rational AppScan Sales Mastery Test v1 2015-06-25 14:58:18
IBM 000-M221 Tivoli Automation Sales Mastery Test v3 2015-06-25 14:58:18
IBM 000-M222 Tivoli Enterprise Asset Management Sales Mastery Test v2 2015-06-25 14:58:18
IBM 000-M223 Tivoli Security Sales Mastery Test v3 2015-06-25 14:58:18
IBM 000-M224 IBM Initiate Master Data Service Sales Mastery v1 2015-06-25 14:58:18
IBM 000-M225 IBM Tivoli Internet Security Systems Sales Mastery Test v2 2015-06-25 14:58:18
IBM 000-M227 IBM Datacap Taskmaster Capture Sales Mastery Test v1 2015-06-25 14:58:18
IBM 000-M228 IBM WebSphere Cast Iron Sales Mastery Test v1 2015-06-25 14:58:18
IBM 000-M229 IBM SPSS Predictive Analytics Sales Mastery v1 2015-06-25 14:58:18
IBM 000-M23 IBM Host Access Transformation Services Technical Sales Mastery v1 2015-06-25 14:58:18
IBM 000-M230 Information Management Enterprise Content Management Sales Mastery Test v1 2015-06-25 14:58:18
IBM 000-M233 IBM Social Business Solution Sales Mastery Test v1 2015-06-25 14:58:18
IBM 000-M235 IBM Tivoli Security Sales Mastery Test v4 2015-06-25 14:58:18
IBM 000-M236 IBM Tivoli Storage Sales Mastery Test v3 2015-06-25 14:58:18
IBM 000-M237 IBM B2B Integration-Network-Managed File Transfer Sales Mastery Test v1 2015-06-25 14:58:18
IBM 000-M239 WebSphere Sales Mastery Test for the Sales Professional v4 2015-06-25 14:58:18
IBM 000-M24 IBM Rational AppScan Technical Sales Mastery Test v1 2015-06-25 14:58:18
IBM 000-M240 IBM Lotus Sametime Unified Telephony Sales Mastery Test v1 2015-06-25 14:58:18
IBM 000-M241 IBM Enterprise Marketing Management Sales Mastery Test v1 2015-06-25 14:58:18
IBM 000-M245 IBM Tivoli Automation Sales Mastery Test v4 2015-06-25 14:58:18
IBM 000-M246 IBM Smarter Commerce Sales Mastery Test v1 2015-06-25 14:58:18
IBM 000-M247 IBM Cognos Business Intelligence Sales Mastery Test v1 2015-06-25 14:58:18
IBM 000-M248 IBM Cognos Midmarket Foundational Sales Mastery Test v1 2015-06-25 14:58:18
IBM 000-M249 IBM Cognos Financial Performance Management Sales Mastery Test v1 2015-06-25 14:58:18
IBM 000-M25 IBM Rational Team Concert Technical Sales Mastery Test 2015-06-25 14:58:18
IBM 000-M26 RDi SOA Technical Sales Mastery Test 2015-06-25 14:58:18
IBM 000-M27 M27 IBM Rational Build Forge Technical Sales Mastery Test 2015-06-25 14:58:18
IBM 000-M30 IBM Information Management InfoSphere Warehouse C-Class Technical Sales Mastery Test 2015-06-25 14:58:18
IBM 000-M31 M31 IBM Information Management Optim Technical Sales Mastery Test 2015-06-25 14:58:18
IBM 000-M32 IBM Information Management pureXML Technical Sales Mastery 2015-06-25 14:58:18
IBM 000-M33 IBM Rational Quality Manager Technical Sales Mastery Test v2 2015-06-25 14:58:18
IBM 000-M34 IBM Information Management pureXML Technical Mastery Test v2 2015-06-25 14:58:18
IBM 000-M35 IBM Information Management Informix Dynamic Server Technical Mastery Test v2 2015-06-25 14:58:18
IBM 000-M37 IBM WebSphere Portal Technical Sales Mastery v2 2015-06-25 14:58:18
IBM 000-M38 IBM Lotus Notes & Domino Technical Sales Mastery v2 2015-06-25 14:58:18
IBM 000-M39 IBM WebSphere MQ Technical Sales Mastery Test v2 2015-06-25 14:58:18
IBM 000-M41 IBM Lotus Sametime Unified Telephony Entry Technical Sales Mastery Test v1 2015-06-25 14:58:18
IBM 000-M42 IBM Lotus Sametime Unified Telephony Basic Technical Sales Mastery Test v1 2015-06-25 14:58:18
IBM 000-M43 IBM Lotus Sametime Unified Telephony Intermediate Technical Sales Mastery Test v1 2015-06-25 14:58:18
IBM 000-M44 IBM Lotus Sametime Unified Telephony Advanced Technical Sales Mastery Test v1 2015-06-25 14:58:18
IBM 000-M45 IBM Information Management DB2 Technical Mastery v2 2015-06-25 14:58:18
IBM 000-M46 IBM WebSphere Portlet Factory Technical Sales Mastery Test v2 2015-06-25 14:58:18
IBM 000-M47 IBM Lotus Quickr Technical Sales Mastery Test v1 2015-06-25 14:58:18
IBM 000-M48 IBM Lotus Web Content Management Technical Sales Mastery Test v2 2015-06-25 14:58:18
IBM 000-M49 IBM RationalFocal Point Techinical Sales Mastery Test v1 2015-06-25 14:58:18
IBM 000-M50 IBM Internet Security Systems Sales Mastery Test v1 2015-06-25 14:58:18
IBM 000-M60 IBM Lotus Symphony Technical Sales Mastery Test v1 2015-06-25 14:58:18
IBM 000-M601 IBM Healthcare Industry Solutions Sales Mastery Test v1 2015-06-25 14:58:18
IBM 000-M602 IBM Banking Industry Solutions Sales Mastery Test v1 2015-06-25 14:58:18
IBM 000-M605 IBM Automotive Industry Solutions Sales Mastery Test v1 (00M-605) 2015-06-25 14:58:18
IBM 000-M608 IBM Retail Industry Solutions Sales Mastery Test v1 (00M-608) 2015-06-25 14:58:18
IBM 000-M61 IBM Lotus Protector Technical Sales Mastery Test v1 2015-06-25 14:58:18
IBM 000-M62 IBM Lotus Connections Technical Sales Mastery Test v1 2015-06-25 14:58:18
IBM 000-M63 IBM Lotus Forms Technical Sales Mastery Test v2 2015-06-25 14:58:18
IBM 000-M64 IBM Lotus Sametime Technical Sales Mastery Test v1 2015-06-25 14:58:18
IBM 000-M65 IBM Lotus XPages Technical Mastery Test 2015-06-25 14:58:18
IBM 000-M66 IBM InfoSphere Information Server Technical Mastery Test v1 2015-06-25 14:58:18
IBM 000-M67 IBM LotusLive Technical Sales Mastery Test v1 2015-06-25 14:58:18
IBM 000-M68 IBM Information Management Informix Technical Mastery Test v3 2015-06-25 14:58:18
IBM 000-M70 IBM Information Management Optim z/OS Technical Mastery Test v1 2015-06-25 14:58:18
IBM 000-M71 IBM Information Management Content Management OnDemand Technical Mastery Test v1 2015-06-25 14:58:18
IBM 000-M72 IBM Information Management InfoSphere Content Collector Technical Mastery Test v1 2015-06-25 14:58:18
IBM 000-M73 IBM OmniFind Technical Sales Mastery Test v1 2015-06-25 14:58:18
IBM 000-M74 IBM Information Management Content Manager Technical Mastery Test v1 2015-06-25 14:58:18
IBM 000-M75 IBM InfoSphere Guardium Technical Mastery Test v1 2015-06-25 14:58:18
IBM 000-M76 IBM InfoSphere Master Data Management Server Technical Mastery Test v1 2015-06-25 14:58:18
IBM 000-M77 IBM Information Management Optim Technical Mastery v2 2015-06-25 14:58:18
IBM 000-M78 IBM Initiate Master Data Service Technical Mastery Test 2015-06-25 14:58:18
IBM 000-M79 IBM Initiate Master Data Service Support Mastery v1 2015-06-25 14:58:18
IBM 000-M80 IBM ISW-9.7 & Smart Analytics Technical Mastery Test v1 2015-06-25 14:58:18
IBM 000-M82 IBM Lotus Quickr Technical Sales Mastery Test v2 2015-06-25 14:58:18
IBM 000-M83 IBM WebSphere Portal Technical Sales Mastery Test v3 2015-06-25 14:58:18
IBM 000-M86 IBM InfoSphere Master Data Mgmt-PIM Technical Mastery v1 2015-06-25 14:58:18
IBM 000-M87 IBM Netezza Technical Mastery Test v1 2015-06-25 14:58:18
IBM 000-M88 IBM Unica Enterprise Marketing Operations Technical Mastery Test v1 2015-06-25 14:58:18
IBM 000-M89 IBM WebSphere Cast Iron Technical Mastery Test v1 2015-06-25 14:58:18
IBM 000-M90 IBM Content Analytics Theory Technical Mastery Test v1 2015-06-25 14:58:18
IBM 000-M91 IBM Content Analytics Product Fundamentals Technical Mastery Test v1 2015-06-25 14:58:18
IBM 000-M92 IBM Datacap Taskmaster Capture Practical Application Technical Mastery v1 2015-06-25 14:58:18
IBM 000-M93 IBM Datacap Taskmaster Capture Product Fundamentals Technical Mastery Test v1 2015-06-25 14:58:18
IBM 000-M94 IBM InfoSphere DataStage Fundamentals Technical Mastery Test v1 2015-06-25 14:58:18
IBM 000-M95 IBM InfoSphere QualityStage Fundamentals Technical Mastery Test v1 2015-06-25 14:58:18
IBM 000-M96 IBM Unica Enterprise Campaign Technical Mastery Test v1 2015-06-25 14:58:18
IBM 000-M97 IBM BigInsights Technical Mastery Test v1 2015-06-25 14:58:18
IBM 000-M98 IBM Unica NetInsight Technical Mastery Test v1 2015-06-25 14:58:18
IBM 000-M99 IBM Coremetrics Technical Mastery Test v1 2015-06-25 14:58:18
IBM 000-N01 IBM B2B Integration Technical Mastery Test v1 2015-06-25 14:58:18
IBM 000-N02 IBM Managed File Transfer Technical Mastery Test v1 2015-06-25 14:58:18
IBM 000-N03 IBM Commerce Solutions Selling Technical Mastery Test v1 2015-06-25 14:58:18
IBM 000-N04 IBM Commerce Solutions Order Mgmt Technical Mastery Test v1 2015-06-25 14:58:18
IBM 000-N05 IBM Commerce Solutions Supply Chain Mgmt Technical Mastery Test v1 2015-06-25 14:58:18
IBM 000-N06 IBM Optimization Supply Chain Mgmt Technical Mastery Test v1 2015-06-25 14:58:18
IBM 000-N07 IBM Optimization Technical Mastery Test v1 2015-06-25 14:58:18
IBM 000-N08 IBM InfoSphere Streams Technical Mastery Test v1 2015-06-25 14:58:18
IBM 000-N09 IBM LotusLive Technical Sales Mastery Test v2 2015-06-25 14:58:18
IBM 000-N10 IBM InfoSphere Information Server Technical Mastery Test v2 2015-06-25 14:58:18
IBM 000-N11 IBM InfoSphere Change Data Capture Technical Mastery Test v2 2015-06-25 14:58:18
IBM 000-N12 IBM SPSS Data Collection Technical Support Mastery Test v1 2015-06-25 14:58:18
IBM 000-N13 IBM Intelligent Operations Center Technical Mastery Test v1 2015-06-25 14:58:18
IBM 000-N14 IBM SPSS Collaboration and Deployment Services Technical Support Mastery Test v1 2015-06-25 14:58:18
IBM 000-N15 IBM IOC Intelligent Water Technical Mastery Test v1 2015-06-25 14:58:18
IBM 000-N16 IBM IOC Intelligent Transportation Technical Mastery Test v1 2015-06-25 14:58:18
IBM 000-N17 IBM B2B Integration SaaS Technical Mastery Test v1 2015-06-25 14:58:18
IBM 000-N18 IBM Information Management DB2 10 Technical Mastery Test v3 2015-06-25 14:58:18
IBM 000-N19 IBM SmartCloud for Social Business Technical Sales Mastery Test v3 2015-06-25 14:58:18
IBM 000-N20 IBM Rational Enterprise Modernization Technical Sales Mastery Test v1 2015-06-25 14:58:18
IBM 000-N21 IBM Rational Collaborative Lifecycle Management for IT Technical Sales Mastery Test v1 2015-06-25 14:58:18
IBM 000-N23 IBM PureApplication System Technical Sales Mastery Test v1 2015-06-25 14:58:18
IBM 000-N24 IBM QRadar Technical Sales Mastery Test v1 2015-06-25 14:58:18
IBM 000-N25 IBM InfoSphere MDM Advanced Edition Technical Mastery Test v2 2015-06-25 14:58:18
IBM 000-N26 IBM Information Management DB2 10 pureScale Technical Mastery Test v2 2015-06-25 14:58:18
IBM 000-N27 IBM InfoSphere Warehouse Technical Mastery Test v1 2015-06-25 14:58:18
IBM 000-N31 IBM Worklight Mobile Foundation Technical Sales Mastery v1 2015-06-25 14:58:18
IBM 000-N32 IBM Big Data Fundamentals Technical Mastery Test v1 2015-06-25 14:58:18
IBM 000-N33 IBM i2 IntelligenceTechnical Mastery Test v1 2015-06-25 14:58:18
IBM 000-N34 IBM Tealeaf Technical Mastery Test v1 2015-06-25 14:58:18
IBM 000-N35 IBM i2 Analyst 2015-06-25 14:58:18
IBM 000-N36 IBM i2 iBase Support Mastery Test v1 2015-06-25 14:58:18
IBM 000-N38 IBM InfoSphere BigInsights Technical Mastery Test v2 2015-06-25 14:58:18
IBM 000-N40 IBM Information Management Optim Technical Mastery v3 2015-06-25 14:58:18
IBM 000-N45 IBM InfoSphere Information Server for Data Integration Fundamentals Technical Mastery Test v1 2015-06-25 14:58:18
IBM 000-N52 IBM SmartCloud for Social Business Technical Mastery Test v4 2015-06-25 14:58:18
IBM 000-N55 IBM FileNet P8 System Implementation Technical Mastery Test v1 2015-06-25 14:58:18
IBM 000-R01 IBM SurePOS 5x3 Technical Mastery - NA/LA/AP 2015-06-25 14:58:18
IBM 000-R03 IBM SurePOS 720, 740, and 780 Technical Mastery 2015-06-25 14:58:18
IBM 000-R06 IBM SurePOS 5x3 Technical Mastery - Europe 2015-06-25 14:58:18
IBM 000-R09 IBM SurePOS 300 Models 330 and 33H Technical Mastery 2015-06-25 14:58:18
IBM 000-R11 IBM AnyPlace Kiosk Technical Mastery (1xx models) 2015-06-25 14:58:18
IBM 000-R13 IBM Retail Environment for SuSE Linux Technical Mastery 2015-06-25 14:58:18
IBM 000-R14 IBM SurePOS 500 Series Models 5x5 Technical Mastery 2015-06-25 14:58:18
IBM 000-R15 IBm AnyPlace Kiosk 5xx, 7xx, and 9xx Technical Mastery 2015-06-25 14:58:18
IBM 000-R17 IBM SurePOS 700 Series Models 7x3 Technical Mastery 2015-06-25 14:58:18
IBM 000-R18 IBM SurePOS ACE V5 Technical Mastery 2015-06-25 14:58:18
IBM 000-R25 IBM SurePOS 700 Series Models 743 and 784 Technical Mastery 2015-06-25 14:58:18
IBM 000-S32 IBM System Storage Sales Mastery Test V2 2015-06-25 14:58:18
IBM 000-SS1 IBM Systems Software Technical Sales Mastery V1 Exam 2015-06-25 14:58:18
IBM 000-SS2 IBM Systems Software Technical Sales Mastery V1 2015-06-25 14:58:18
IBM 000-X01 IBM System x iDataPlex Technical Support 2015-06-25 14:58:18
IBM 000-Z01 IBM System z System Programmer Mastery 2015-06-25 14:58:18
IBM 000-Z03 zEnterprise Solution Sales Update Mastery 2015-06-25 14:58:18
IBM 000-Z04 zEnterprise Technical Update Mastery 2015-06-25 14:58:18
IBM 000-Z05 IBM System z and z/OS Fundamentals Mastery 2015-06-25 14:58:18
IBM 00M-194 IBM InfoSphere Guardium Sales Mastery Test v1 (000-M194) 2015-06-25 14:58:18
IBM 00M-195 IBM Security Solutions Sales Mastery Test v1 (000-M195) 2015-06-25 14:58:18
IBM 00M-198 IBM Lotus Notes & Domino Sales Mastery Test v1 (00M-198) 2015-06-25 14:58:18
IBM 00M-222 Tivoli Enterprise Asset Management Sales Mastery Test v2 (000-M222) 2015-06-25 14:58:18
IBM 00M-225 IBM Tivoli Internet Security Systems Sales Mastery Test v2 (000-M225) 2015-06-25 14:58:18
IBM 00M-226 IBM Smart Analytics Sales Mastery Test v1 (00M-226) 2015-06-25 14:58:18
IBM 00M-229 IBM SPSS Predictive Analytics Sales Mastery v1 (00M-229) 2015-06-25 14:58:18
IBM 00M-232 IBM Solutions for Smart Business Sales Mastery Test v1 (000-M232) 2015-06-25 14:58:18
IBM 00M-234 IBM Netezza Sales Mastery Test v1 2015-06-25 14:58:18
IBM 00M-237 IBM B2B Integration-Network-Managed File Transfer Sales Mastery Test v1 (000-M237) 2015-06-25 14:58:18
IBM 00M-238 IBM Commerce Solutions Selling/Order Mgmt Sales Mastery Test v1 2015-06-25 14:58:18
IBM 00M-242 IBM Commerce Solutions Supply Chain Mgmt Sales Mastery Test v1 2015-06-25 14:58:18
IBM 00M-244 IBM Optimization Sales Mastery Test v1 2015-06-25 14:58:18
IBM 00M-245 IBM Tivoli Automation Sales Mastery Test v4 (00M-245) 2015-06-25 14:58:18
IBM 00M-246 IBM Smarter Commerce Sales Mastery Test v1 (00M-246) 2015-06-25 14:58:18
IBM 00M-248 IBM Cognos Midmarket Foundational Sales Mastery Test v1 (00M-248) 2015-06-25 14:58:18
IBM 00M-502 Power Systems with IBM i Sales Professional - v2 (00M-502) 2015-06-25 14:58:18
IBM 00M-503 Power Systems with IBM i Technical Sales Professional - v2 (00M-503) 2015-06-25 14:58:18
IBM 00M-512 Power Systems with AIX Sales Professional - v2 (00M-512) 2015-06-25 14:58:18
IBM 00M-513 Power Systems with AIX Technical Sales Professional - v2 (00M-513) 2015-06-25 14:58:18
IBM 00M-530 Systems Storage Sales Mastery Test 2015-06-25 14:58:18
IBM 00M-604 IBM Government Industry Solutions Sales Mastery Test v1 Exam 2015-06-25 14:58:18
IBM 00M-605 IBM Automotive Industry Solutions Sales Mastery Test v1 2015-06-25 14:58:18
IBM 00M-608 IBM Retail Industry Solutions Sales Mastery Test v1 (000-M608) 2015-06-25 14:58:18
IBM 00M-609 IBM Insurance Industry Solutions Sales Mastery Test v1 Exam 2015-06-25 14:58:18
IBM 00M-617 TSM Butterfly Migration Engine Sales Mastery V1 2015-06-25 14:58:18
IBM 00M-620 IBM Risk Analytics Sales Mastery Test v1 2015-06-25 14:58:18
IBM 00M-622 IBM Risk Analytics for Insurance and Pensions Sales Mastery Test v1 2015-06-25 14:58:18
IBM 00M-624 IBM Risk Analytics for Governance Risk and Compliance Sales Mastery Test v1 2015-06-25 14:58:18
IBM 00M-638 IBM Lotus Notes & Domino Sales Mastery Test v2 (00M-638) 2015-06-25 14:58:18
IBM 00M-639 IBM Big Data Sales Mastery Test v1 (00M-639) 2015-06-25 14:58:18
IBM 00M-640 IBM Enterprise Content Management Sales Mastery Test v2 (00M-640) 2015-06-25 14:58:18
IBM 00M-641 IBM Exceptional Web Experience Sales Mastery Test v1 2015-06-25 14:58:18
IBM 00M-642 ICS Social Software Sales Mastery Test v2 2015-06-25 14:58:18
IBM 00M-643 Information Management Solution Sales Mastery Test v4 2015-06-25 14:58:18
IBM 00M-645 IBM Cognos Business Intelligence Sales Mastery Test v2 2015-06-25 14:58:18
IBM 00M-646 IBM WebSphere Sales Mastery Test v5 2015-06-25 14:58:18
IBM 00M-647 IBM Intelligent Operations Center-Water & Transportation Sales Mastery Test v1 (00M-647) 2015-06-25 14:58:18
IBM 00M-648 IBM Rational IT Sales Mastery Test v2 2015-06-25 14:58:18
IBM 00M-649 IBM Rational Systems & Software Engineering Sales Mastery Test v2 2015-06-25 14:58:18
IBM 00M-650 IBM Rational Enterprise Modernization Sales Mastery Test v1 2015-06-25 14:58:18
IBM 00M-651 IBM PureApplication System Sales MasteryTest v1 (00M-651) 2015-06-25 14:58:18
IBM 00M-652 Curam Sales Mastery Test v1 2015-06-25 14:58:18
IBM 00M-653 IBM Emptoris Strategic Supply Management Sales Mastery Test v1 2015-06-25 14:58:18
IBM 00M-654 IBM Emptoris Telecom Expense Management Sales Mastery Test v1 2015-06-25 14:58:18
IBM 00M-656 ICS SmartCloud for Social Business Sales Mastery Test v1 2015-06-25 14:58:18
IBM 00M-657 IBM i2 Intelligence Sales Mastery Test v1 2015-06-25 14:58:18
IBM 00M-660 IBM Worklight Mobile Foundation Sales Mastery Test v1 2015-06-25 14:58:18
IBM 00M-662 IBM Security Systems Sales Mastery Test v2 2015-06-25 14:58:18
IBM 00M-663 IBM Digital Marketing Optimization Sales Mastery v1 2015-06-25 14:58:18
IBM 00M-664 IBM Rational Enterprise Modernization Sales Mastery Test v2 2015-06-25 14:58:18
IBM 00M-665 IBM Tivoli Storage Sales Mastery Test v4 2015-06-25 14:58:18
IBM 00M-667 IBM Mobile Foundation Enterprise Sales Mastery test v1 2015-06-25 14:58:18
IBM 00M-668 IBM Tivoli Enterprise Asset Management Sales Mastery Test v3 2015-06-25 14:58:18
IBM 00M-670 IBM SVP Primary Support Provider Mastery Test v1 2015-06-25 14:58:18
IBM A2010-005 Assess IBM Maximo Asset Management V7.1 Solution Designer 2015-06-25 14:58:18
IBM A2010-501 Assess IBM Maximo Asset Management V7.5 Infrastructure Implementation 2015-06-25 14:58:18
IBM A2010-502 Assess IBM Tivoli Endpoint Manager for Mobile Devices V2.1 Implementation 2015-06-25 14:58:18
IBM A2010-503 Assess IBM Tivoli Monitoring V6.3 Fundamentals 2015-06-25 14:58:18
IBM A2010-538 Assess IBM Tivoli Monitoring V6.2.2 Implementation 2015-06-25 14:58:18
IBM A2010-539 Assess IBM Tivoli Storage Manager V6.2 Administration 2015-06-25 14:58:18
IBM A2010-564 Assess Fundamentals of Applying Tivoli Storage Management V3 2015-06-25 14:58:18
IBM A2010-568 Assess IBM Tivoli Composite Application Manager for Application Diagnostics V7.1 Implementation 2015-06-25 14:58:18
IBM A2010-569 Assess IBM Tivoli Workload Scheduler V8.6 Implementation 2015-06-25 14:58:18
IBM A2010-570 Assess IBM Maximo Asset Management V7.5 Implementation 2015-06-25 14:58:18
IBM A2010-571 Assess IBM Tivoli Process Automation Engine V7.5 Implementation 2015-06-25 14:58:18
IBM A2010-572 Assess IBM Tivoli Monitoring V6.2.3 Administration 2015-06-25 14:58:18
IBM A2010-573 Assess IBM Tivoli Netcool/Impact V6.1 Implementation 2015-06-25 14:58:18
IBM A2010-574 Assess IBM Tivoli Business Service Manager V6.1 Implementation 2015-06-25 14:58:18
IBM A2010-577 Assess IBM Tivoli Endpoint Manager V8.2 Implementation 2015-06-25 14:58:18
IBM A2010-578 Assess Fundamentals of Applying Tivoli Service Availability/Performance Management Solutions V3 2015-06-25 14:58:18
IBM A2010-579 Assess IBM Tivoli Storage Manager V6.3 Fundamentals 2015-06-25 14:58:18
IBM A2010-590 Assess IBM Tivoli Storage Manager V6.3 Implementation 2015-06-25 14:58:18
IBM A2010-591 Assess Fundamentals of Applying Tivoli Service Delivery and Process Automation Solutions V3 2015-06-25 14:58:18
IBM A2010-597 Assess IBM TRIRIGA Application Platform V3.2.1 Application Development 2015-06-25 14:58:18
IBM A2010-598 Assess IBM Tivoli Storage Manager V6.3 Administration 2015-06-25 14:58:18
IBM A2010-599 Assess IBM Tivoli Storage Productivity Center V5.1 Implementation 2015-06-25 14:58:18
IBM A2010-651 Assess Fundamentals of Applying Maximo Asset Management Solutions V3 2015-06-25 14:58:18
IBM A2010-652 Assess IBM SmartCloud Control Desk V7.5 Fundamentals 2015-06-25 14:58:18
IBM A2010-654 Assess IBM Tivoli Application Dependency Discovery Manager V7.2.1.3 Implementation 2015-06-25 14:58:18
IBM A2010-656 Assess IBM SmartCloud Control Desk V7.5 Service Request Management Implementation 2015-06-25 14:58:18
IBM A2010-657 Assess IBM Tivoli Netcool/OMNIbus V7.4 Implementation 2015-06-25 14:58:18
IBM A2030-280 Assessment IBM Cloud Computing Infrastructure Architect V1 2015-06-25 14:58:18
IBM A2030-283 Assess Foundations of IBM Cloud Computing Architecture V3 2015-06-25 14:58:18
IBM A2040-403 Assessment IBM Forms 8.0 - Forms Design and Development 2015-06-25 14:58:18
IBM A2040-404 Assessment Developing Enterprise Mobile Applications with IBM Worklight and IBM WebSphere Portal 2015-06-25 14:58:18
IBM A2040-405 Assessment IBM Notes and Domino 9.0 Social Edition System Administration Update 2015-06-25 14:58:18
IBM A2040-406 Assessment IBM Notes and Domino 9.0 Social Edition System Administration A 2015-06-25 14:58:18
IBM A2040-407 Assessment IBM Notes and Domino 9.0 Social Edition System Administration B 2015-06-25 14:58:18
IBM A2040-408 Assessment IBM Notes and Domino 9.0 Social Edition Application Development Update 2015-06-25 14:58:18
IBM A2040-409 Assessment IBM Notes and Domino 9.0 Social Edition Application Development Exam A 2015-06-25 14:58:18
IBM A2040-410 Assessment IBM Notes and Domino 9.0 Social Edition Application Development Exam B 2015-06-25 14:58:18
IBM A2040-412 Assessment IBM Notes Traveler Administration 2015-06-25 14:58:18
IBM A2040-440 Assessment IBM WebSphere Portal and Portal Products Fundamentals 2015-06-25 14:58:18
IBM A2040-441 Assessment IBM Social Software and Unified Communications Fundamentals 2015-06-25 14:58:18
IBM A2040-442 Assessment IBM Notes and Domino Fundamentals 2015-06-25 14:58:18
IBM A2040-911 Assessment IBM WebSphere Portal 8.0 Solution Development 2015-06-25 14:58:18
IBM A2040-913 Assessment Developing Websites using IBM Lotus Web Content Management 7.0 2015-06-25 14:58:18
IBM A2040-914 Assessment Administering IBM Lotus Quickr 8.5 for Domino 2015-06-25 14:58:18
IBM A2040-920 Assessment IBM WebSphere Portal 7.0 Deployment and Administration 2015-06-25 14:58:18
IBM A2040-922 Assessment Developing IBM Lotus Domino 8.5.2 Applications Advanced XPage Design 2015-06-25 14:58:18
IBM A2040-923 Assessment IBM WebSphere Portal 8.0 Deployment and Administration 2015-06-25 14:58:18
IBM A2040-928 Assessment Developing Websites Using IBM Web Content Manager 8.0 2015-06-25 14:58:18
IBM A2040-951 Assessment IBM Lotus Notes Domino 8.5 Application development Update 2015-06-25 14:58:18
IBM A2040-985 Assessment Developing IBM Lotus Notes and Domino 8.5 Applications 2015-06-25 14:58:18
IBM A2040-986 Assessment Creating Notes & Domino 8.5 Applications with Xpages & Advanced Techniques 2015-06-25 14:58:18
IBM A2040-988 Assessment Administering IBM Lotus Sametime 8.5 2015-06-25 14:58:18
IBM A2050-723 Assessment IBM WebSphere Commerce V7.0 Application Development 2015-06-25 14:58:18
IBM A2050-724 Assessment IBM WebSphere Commerce V7.0, System Administration 2015-06-25 14:58:18
IBM A2070-580 Assessment IBM Case Manager V5.0 2015-06-25 14:58:18
IBM A2070-581 Assessment IBM FileNet Content Manager V5.1 2015-06-25 14:58:18
IBM A2090-422 Assessment InfoSphere QualityStage v8.5 Assessment 2015-06-25 14:58:18
IBM A2090-541 Assessment DB2 9.7 DBA for Linux UNIX and Windows 2015-06-25 14:58:18
IBM A2090-543 Assessment DB2 9.7 Application Development 2015-06-25 14:58:18
IBM A2090-558 Assessment Informix 11.70 Fundamentals 2015-06-25 14:58:18
IBM A2090-612 Assessment DB2 10 DBA for z/OS Assessment 2015-06-25 14:58:18
IBM A2090-719 Assessment InfoSphere Warehouse V9.5-Assessment 2015-06-25 14:58:18
IBM A2090-731 Assessment DB2 9 DBA for LUW-Assessment 2015-06-25 14:58:18
IBM A2150-195 Assess IBM Security QRadar V7.0 MR4 Fundamentals 2015-06-25 14:58:18
IBM A2160-667 Assessment IBM Architectural Design of SOA Solutions 2015-06-25 14:58:18
IBM A2180-188 Assessment IBM WebSphere Lombardi Edition V7.2, BPM Program Management 2015-06-25 14:58:18
IBM A2180-270 Assessment IBM Business Process Manager Advanced V7.5, Integration Development 2015-06-25 14:58:18
IBM A2180-607 Assessment IBM WebSphere Process Server V7.0, Integration Development 2015-06-25 14:58:18
IBM A4040-122 Assessment Power Systems with POWER7 Common Sales Skills -v2 2015-06-25 14:58:18
IBM A4040-332 Assessment High Availability for AIX - Technical Support and Administration -v2 2015-06-25 14:58:18
IBM A4070-603 Assessment IBM System z Solution Sales V6 2015-06-25 14:58:18
IBM A4120-784 Assessment IBM PureFlex Technical Expert V1 2015-06-25 14:58:18
IBM A6040-752 Assessment Retail Store Solution Sales V4 2015-06-25 14:58:18
IBM BAS-004 IBM Cognos ICM Essentials 2015-06-25 14:58:18
IBM BAS-010 IBM SPSS Modeler Professional v2 2015-06-25 14:58:18
IBM BAS-011 IBM SPSS Statistics Level 1 v2 2015-06-25 14:58:18
IBM BAS-012 IBM SPSS Modeler Data Analysis for Business Partners v2 2015-06-25 14:58:18
IBM C2010-005 IBM Maximo Asset Management V7.1 Solution Designer 2015-06-25 14:58:18
IBM C2010-023 IBM Tivoli Support Provider Tools and Processes Exam 2015-06-25 14:58:18
IBM C2010-024 IBM Tivoli Level 2 Support Tools and Processes 2015-06-25 14:58:18
IBM C2010-501 IBM Maximo Asset Management V7.5 Infrastructure Implementation Exam 2015-06-25 14:58:18
IBM C2010-502 IBM Endpoint Manager for Mobile Devices V2.1 Implementation Exam 2015-06-25 14:58:18
IBM C2010-503 IBM Tivoli Monitoring V6.3 Fundamentals Exam 2015-06-25 14:58:18
IBM C2010-504 Migration Engine from Butterfly Software V6.05 Fundamentals Exam 2015-06-25 14:58:18
IBM C2010-505 IBM SmartCloud Control Desk V7.5.1 IT Asset Management Exam 2015-06-25 14:58:18
IBM C2010-508 IBM Endpoint Manager V9.0 Fundamentals 2015-06-25 14:58:18
IBM C2010-509 IBM Tivoli Storage Manager V7.1 Fundamentals 2015-06-25 14:58:18
IBM C2010-510 IBM Tivoli Monitoring V6.3 Administration 2015-06-25 14:58:18
IBM C2010-511 IBM Tivoli Storage Manager V7.1 Implementation 2015-06-25 14:58:18
IBM C2010-515 IBM SmartCloud Application Performance Management V7.7 Fundamentals 2015-06-25 14:58:18
IBM C2010-517 IBM Workload Automation V9.2 Implementation 2015-06-25 14:58:18
IBM C2010-539 IBM Tivoli Storage Manager V6.2 Administration Exam 2015-06-25 14:58:18
IBM C2010-564 Fundamentals Applying of Tivoli Storage Management V3 Exam 2015-06-25 14:58:18
IBM C2010-565 IBM Tivoli Network Manager IP Edition V3.9 Implementation Exam 2015-06-25 14:58:18
IBM C2010-568 IBM Tivoli Composite Application Manager for Application Diagnostics V7.1 Implementation Exam 2015-06-25 14:58:18
IBM C2010-569 IBM Tivoli Workload Scheduler V8.6 Implementation Exam 2015-06-25 14:58:18
IBM C2010-570 IBM Maximo Asset Management V7.5 Implementation Exam 2015-06-25 14:58:18
IBM C2010-571 IBM Tivoli Process Automation Engine V7.5 Implementation Exam 2015-06-25 14:58:18
IBM C2010-572 IBM Tivoli Monitoring V6.2.3 Administration Exam 2015-06-25 14:58:18
IBM C2010-573 IBM Tivoli Netcool/Impact V6.1 Implementation Exam 2015-06-25 14:58:18
IBM C2010-574 IBM Tivoli Business Service Manager V6.1 Implementation 2015-06-25 14:58:18
IBM C2010-576 Fundamentals of Applying IBM Tivoli Network and Service Assurance Solutions V1 2015-06-25 14:58:18
IBM C2010-577 IBM Tivoli Endpoint Manager V8.2 Implementation Exam 2015-06-25 14:58:18
IBM C2010-578 Fundamentals of Applying Tivoli Service Availability and Performance Management Solutions V3 Exam 2015-06-25 14:58:18
IBM C2010-579 IBM Tivoli Storage Manager V6.3 Fundamentals Exam 2015-06-25 14:58:18
IBM C2010-590 IBM Tivoli Storage Manager V6.3 Implementation Exam 2015-06-25 14:58:18
IBM C2010-591 Fundamentals of Applying Tivoli Service Delivery and Process Automation Solutions V3 Exam 2015-06-25 14:58:18
IBM C2010-593 IBM Tivoli Netcool/OMNIbus V7.4 Fundamentals 2015-06-25 14:58:18
IBM C2010-595 IBM Maximo Asset Management V7.5 Fundamentals Exam 2015-06-25 14:58:18
IBM C2010-597 IBM TRIRIGA Application Platform V3.2.1 Application Development Exam 2015-06-25 14:58:18
IBM C2010-598 IBM Tivoli Storage Manager V6.3 Administration Exam 2015-06-25 14:58:18
IBM C2010-599 IBM Storage Productivity Center V5.1 Implementation 2015-06-25 14:58:18
IBM C2010-651 Fundamentals of Applying Maximo Asset Management Solutions V3 Exam 2015-06-25 14:58:18
IBM C2010-652 IBM SmartCloud Control Desk V7.5 Fundamentals Exam 2015-06-25 14:58:18
IBM C2010-653 Fundamentals of IBM TRIRIGA Application Platform V3.2.1 Application Development Exam 2015-06-25 14:58:18
IBM C2010-654 IBM Tivoli Application Dependency Discovery Manager V7.2.1.3 Implementation 2015-06-25 14:58:18
IBM C2010-656 IBM SmartCloud Control Desk V7.5 Service Request Management Implementation Exam 2015-06-25 14:58:18
IBM C2010-657 IBM Tivoli Netcool/OMNIbus V7.4 Implementation Exam 2015-06-25 14:58:18
IBM C2010-658 Fundamentals of Applying IBM SmartCloud Application Performance Management Solutions V1 2015-06-25 14:58:18
IBM C2010-940 IBM Tivoli Level 1 Support Tools and Processes 2015-06-25 14:58:18
IBM C2020-001 IBM OpenPages Developer Fundamentals Exam 2015-06-25 14:58:18
IBM C2020-002 IBM Algo Financial Modeler Developer Fundamentals Exam 2015-06-25 14:58:18
IBM C2020-004 IBM Cognos ICM Essentials Exam 2015-06-25 14:58:18
IBM C2020-012 IBM SPSS Modeler Data Analysis for Business Partners v2 Exam 2015-06-25 14:58:18
IBM C2020-180 IBM Cognos BI Professional 2015-06-25 14:58:18
IBM C2020-605 IBM Cognos 10 Controller Developer Exam 2015-06-25 14:58:18
IBM C2020-612 IBM Cognos 10 BI Author Exam 2015-06-25 14:58:18
IBM C2020-615 IBM Cognos Real-time Monitoring Developer Exam 2015-06-25 14:58:18
IBM C2020-622 IBM Cognos 10 BI Administrator Exam 2015-06-25 14:58:18
IBM C2020-625 IBM Cognos 10 BI Data Warehouse Developer Exam 2015-06-25 14:58:18
IBM C2020-632 IBM Cognos 10 BI Metadata Model Developer Exam 2015-06-25 14:58:18
IBM C2020-635 IBM Cognos 10 BI OLAP Developer Exam 2015-06-25 14:58:18
IBM C2020-642 IBM Cognos 10 BI Scorecard Developer Exam 2015-06-25 14:58:18
IBM C2020-645 IBM Cognos 10 BI Multidimensional Author Exam 2015-06-25 14:58:18
IBM C2020-700 IBM Cognos 10 Planning Application Consultant Exam 2015-06-25 14:58:18
IBM C2020-702 IBM Cognos TM1 10.1 Developer Exam 2015-06-25 14:58:18
IBM C2020-706 IBM Cognos Financial Statement Reporting Developer Exam 2015-06-25 14:58:18
IBM C2030-280 IBM Cloud Computing Infrastructure Architect V1 Exam 2015-06-25 14:58:18
IBM C2040-403 IBM Forms 8.0 - Form Design and Development Exam 2015-06-25 14:58:18
IBM C2040-404 Developing Enterprise Mobile Applications with IBM Worklight and IBM WebSphere Portal Exam 2015-06-25 14:58:18
IBM C2040-405 IBM Notes and Domino 9.0 Social Edition System Administration Update Exam 2015-06-25 14:58:18
IBM C2040-406 IBM Notes and Domino 9.0 Social Edition System Administration A Exam 2015-06-25 14:58:18
IBM C2040-407 IBM Notes and Domino 9.0 Social Edition System Administration B Exam 2015-06-25 14:58:18
IBM C2040-408 IBM Notes and Domino 9.0 Social Edition Application Development Update Exam 2015-06-25 14:58:18
IBM C2040-409 IBM Notes and Domino 9.0 Social Edition Application Development Exam A 2015-06-25 14:58:18
IBM C2040-410 IBM Notes and Domino 9.0 Social Edition Application Development Exam B 2015-06-25 14:58:18
IBM C2040-411 XPages Mobile Advanced Topics 2015-06-25 14:58:18
IBM C2040-412 IBM Notes Traveler Administration Exam 2015-06-25 14:58:18
IBM C2040-413 IBM Sametime 9.0 Administration 2015-06-25 14:58:18
IBM C2040-414 IBM Sametime 9.0 Fundamentals Exam 2015-06-25 14:58:18
IBM C2040-415 Developing OpenSocial Applications Exam 2015-06-25 14:58:18
IBM C2040-416 IBM Kenexa LMS and LCMS Premier Fundamentals 2015-06-25 14:58:18
IBM C2040-417 IBM Kenexa Engagement and Rewards Fundamentals 2015-06-25 14:58:18
IBM C2040-420 IBM WebSphere Portal 8.5 System Administration Update 2015-06-25 14:58:18
IBM C2040-421 IBM WebSphere Portal 8.5 System Administration Core A 2015-06-25 14:58:18
IBM C2040-422 IBM WebSphere Portal 8.5 System Administration Core B 2015-06-25 14:58:18
IBM C2040-440 IBM WebSphere Portal and Portal Products Fundamentals Exam 2015-06-25 14:58:18
IBM C2040-441 IBM Social Software and Unified Communications Fundamentals Exam 2015-06-25 14:58:18
IBM C2040-442 IBM Notes and Domino Fundamentals Exam 2015-06-25 14:58:18
IBM C2040-840 IBM Lotus Notes Domino 8 Configuring Domino Web Servers Exam 2015-06-25 14:58:18
IBM C2040-911 IBM WebSphere Portal 8.0 Solution Development Exam 2015-06-25 14:58:18
IBM C2040-917 Administering IBM Connections 3.0 Exam 2015-06-25 14:58:18
IBM C2040-922 Developing IBM Lotus Domino 8.5.2 Applications Advanced XPage Design Exam 2015-06-25 14:58:18
IBM C2040-923 IBM WebSphere Portal 8.0 Deployment and Administration Exam 2015-06-25 14:58:18
IBM C2040-924 IBM WebSphere Portal 8.0 Migration and Support Exam 2015-06-25 14:58:18
IBM C2040-925 Installing and Configuring IBM Lotus Notes and Domino 8.5 Exam 2015-06-25 14:58:18
IBM C2040-926 Managing and Maintaining IBM Lotus Notes and Domino 8.5 Environments Exam 2015-06-25 14:58:18
IBM C2040-956 IBM Lotus Notes Domino 8.5 System Administration Update - Exam 2015-06-25 14:58:18
IBM C2040-958 IBM SmartCloud Notes Hybrid Config & Onboard Data Transfer Exam 2015-06-25 14:58:18
IBM C2040-985 Developing IBM Lotus Notes and Domino 8.5 Applications Exam 2015-06-25 14:58:18
IBM C2040-986 Creating IBM Lotus Notes and Domino 8.5 Applications with Xpages and Advanced Techniques Exam 2015-06-25 14:58:18
IBM C2040-988 Administering IBM Lotus Sametime 8.5 Exam 2015-06-25 14:58:18
IBM C2050-219 IBM Sterling Order Management V9.1, Deployment Exam 2015-06-25 14:58:18
IBM C2050-240 IBM Sterling Configurator V9.1, Deployment Exam 2015-06-25 14:58:18
IBM C2050-241 IBM Sterling Order Management V9.2, Solution Design Exam 2015-06-25 14:58:18
IBM C2050-723 IBM WebSphere Commerce V7.0 Application Development Exam 2015-06-25 14:58:18
IBM C2050-724 IBM WebSphere Commerce V7.0, System Administration Exam 2015-06-25 14:58:18
IBM C2060-218 IBM Sterling B2B Integrator V5.2, Solution Implementation Exam 2015-06-25 14:58:18
IBM C2060-220 IBM Sterling ConnectDirect, Administration Exam 2015-06-25 14:58:18
IBM C2060-350 IBM WebSphere Transformation Extender V8.4, Application Development 2015-06-25 14:58:18
IBM C2070-448 IBM Content Collector (ICC) v2.2 Exam 2015-06-25 14:58:18
IBM C2070-580 IBM Case Manager V5.0 Exam 2015-06-25 14:58:18
IBM C2070-581 IBM FileNet Content Manager V5.1 Exam 2015-06-25 14:58:18
IBM C2070-582 IBM FileNet Business Process Manager V5.1 Exam 2015-06-25 14:58:18
IBM C2070-583 IBM Content Analytics and Search v2.2 Exam 2015-06-25 14:58:18
IBM C2070-585 IBM Datacap Taskmaster Capture V8.1 Implementation Exam 2015-06-25 14:58:18
IBM C2070-586 IBM Certified Solution Designer - Case Manager v5.1 2015-06-25 14:58:18
IBM C2070-587 IBM FileNet P8 V5.1 Exam 2015-06-25 14:58:18
IBM C2070-588 IBM Datacap Taskmaster Capture V8.1 Solution Design Exam 2015-06-25 14:58:18
IBM C2080-470 IBM Unica Campaign V8.5 Exam 2015-06-25 14:58:18
IBM C2080-474 IBM Tealeaf Customer Experience Management V8.7, Business Analysis Exam 2015-06-25 14:58:18
IBM C2090-303 IBM InfoSphere DataStage v9.1 2015-06-25 14:58:18
IBM C2090-304 IBM InfoSphere QualityStage v9.1 Solution Developer Exam 2015-06-25 14:58:18
IBM C2090-305 IBM InfoSphere Information Analyzer v9.1 Exam 2015-06-25 14:58:18
IBM C2090-310 IBM PureData System for Transactions - Administration 2015-06-25 14:58:18
IBM C2090-312 IBM DB2 11 DBA for z/OS Exam 2015-06-25 14:58:18
IBM C2090-317 DB2 11 System Administrator for z/OS 2015-06-25 14:58:18
IBM C2090-417 IBM WebSphere Information Analyzer v8.0 2015-06-25 14:58:18
IBM C2090-420 IBM InfoSphere MDM Server v9.0 Exam 2015-06-25 14:58:18
IBM C2090-421 InfoSphere DataStage v8.5 Exam 2015-06-25 14:58:18
IBM C2090-422 InfoSphere QualityStage v8.5 Exam 2015-06-25 14:58:18
IBM C2090-423 Information Analyzer v8.5 Exam 2015-06-25 14:58:18
IBM C2090-461 IBM InfoSphere Optim for Distributed Systems v9.1 2015-06-25 14:58:18
IBM C2090-463 IBM InfoSphere Guardium Exam 2015-06-25 14:58:18
IBM C2090-541 DB2 9.7 DBA for Linux UNIX and Windows Exam 2015-06-25 14:58:18
IBM C2090-543 DB2 9.7 Application Development Exam 2015-06-25 14:58:18
IBM C2090-545 DB2 9.7 SQL Procedure Developer Exam 2015-06-25 14:58:18
IBM C2090-546 DB2 9.7 Database Administrator for Linux UNIX or Windows Upgrade Exam 2015-06-25 14:58:18
IBM C2090-550 IBM solidDB and IBM solidDB Universal Cache Exam 2015-06-25 14:58:18
IBM C2090-552 IBM InfoSphere Optim for Distributed Systems Fundamentals 2015-06-25 14:58:18
IBM C2090-556 Informix 11.50 Application Developer Exam 2015-06-25 14:58:18
IBM C2090-558 Informix 11.70 Fundamentals Exam 2015-06-25 14:58:18
IBM C2090-559 IBM Certified Developer - IBM Informix Genero v1 Exam 2015-06-25 14:58:18
IBM C2090-611 DB2 10.1 DBA for Linux, UNIX, and Windows Exam 2015-06-25 14:58:18
IBM C2090-612 DB2 10 DBA for z/OS Exam 2015-06-25 14:58:18
IBM C2090-614 DB2 10.1 Advanced DBA for Linux UNIX and Windows Exam 2015-06-25 14:58:18
IBM C2090-617 DB2 10 System Administrator for z/OS Exam 2015-06-25 14:58:18
IBM C2090-619 IBM Informix 12.10 System Administrator Exam 2015-06-25 14:58:18
IBM C2090-719 InfoSphere Warehouse V9.5 Exam 2015-06-25 14:58:18
IBM C2090-730 DB2 9 Family Fundamentals Exam 2015-06-25 14:58:18
IBM C2090-735 DB2 9.5 SQL Procedure Developer Exam 2015-06-25 14:58:18
IBM C2090-737 DB2 9 System Administrator for z/OS - Exam 2015-06-25 14:58:18
IBM C2090-913 Informix 4GL Development Exam 2015-06-25 14:58:18
IBM C2090-914 System Administration for Red Brick Decision Server Version 6 Exam 2015-06-25 14:58:18
IBM C2090-919 Informix 11.70 System Administrator Exam 2015-06-25 14:58:18
IBM C2140-046 DOORS v9 Exam 2015-06-25 14:58:18
IBM C2140-047 Rational System Architect BPMN Emphasis Exam 2015-06-25 14:58:18
IBM C2140-051 Rational Developer for System z v7.6 Exam 2015-06-25 14:58:18
IBM C2140-052 Collaborative Lifecycle Management V4 Exam 2015-06-25 14:58:18
IBM C2140-056 Rational BuildForge v7.1 Exam 2015-06-25 14:58:18
IBM C2140-058 Rational Performance Tester V8 Exam 2015-06-25 14:58:18
IBM C2140-130 IBM Rational ClearCase v7.1 Exam 2015-06-25 14:58:18
IBM C2140-132 IBM Rational ClearQuest v7.1 Exam 2015-06-25 14:58:18
IBM C2140-134 Rational Business Developer v7.1 Exam 2015-06-25 14:58:18
IBM C2140-135 Rational Host Access Transformation Services (HATS) v7.1 Exam 2015-06-25 14:58:18
IBM C2140-136 Rational Application Developer v7 Exam 2015-06-25 14:58:18
IBM C2140-137 Advanced Rational Application Developer v7 Exam 2015-06-25 14:58:18
IBM C2140-138 Rational RequisitePro - Exam 2015-06-25 14:58:18
IBM C2140-636 Requirements Management with Use Cases - Part 1 Exam 2015-06-25 14:58:18
IBM C2140-637 Requirements Management with Use Cases - Part 2 Exam 2015-06-25 14:58:18
IBM C2140-646 Rational Manual Tester Exam 2015-06-25 14:58:18
IBM C2140-648 Rational Portfolio Manager Exam 2015-06-25 14:58:18
IBM C2140-649 Rational Software Architect Exam 2015-06-25 14:58:18
IBM C2140-819 Rational Application Developer V8 Associate Exam 2015-06-25 14:58:18
IBM C2140-822 Rational Requirements Composer V3 Exam 2015-06-25 14:58:18
IBM C2140-823 Rational Quality Manager V3 Exam 2015-06-25 14:58:18
IBM C2140-833 Object Oriented Analysis and Design - Part 1 (Analysis) Exam 2015-06-25 14:58:18
IBM C2140-834 Object Oriented Analysis and Design - Part 2 (Design) Exam 2015-06-25 14:58:18
IBM C2140-839 Rational Unified Process v7.0 Exam 2015-06-25 14:58:18
IBM C2140-842 Rational Functional Tester for Java Exam 2015-06-25 14:58:18
IBM C2150-195 IBM Security QRadar V7.0 MR4 Fundamentals 2015-06-25 14:58:18
IBM C2150-197 IBM Security Identity Manager V6.0 Implementation 2015-06-25 14:58:18
IBM C2150-198 IBM Security Access Manager V7.0 Implementation Exam 2015-06-25 14:58:18
IBM C2150-199 IBM Security AppScan Standard Edition Implementation v8.7 2015-06-25 14:58:18
IBM C2150-201 Fundamentals of Applying IBM Security Systems Identity and Access Assurance 2015-06-25 14:58:18
IBM C2150-202 IBM Security Access Manager for Mobile V8.0 Implementation 2015-06-25 14:58:18
IBM C2150-400 IBM Security Qradar SIEM Implementation v 7.2.1 2015-06-25 14:58:18
IBM C2150-537 IBM Tivoli Directory Server V6.3 Implementation Exam 2015-06-25 14:58:18
IBM C2150-563 IBM Tivoli Directory Integrator V7.1Implementation 2015-06-25 14:58:18
IBM C2150-575 IBM Tivoli Federated Identity Manager V6.2.2 Implementation Exam 2015-06-25 14:58:18
IBM C2150-596 IBM Security Access Manager for Enterprise Single Sign-On V8.2 Implementation Exam 2015-06-25 14:58:18
IBM C2160-667 Architectural Design of SOA Solutions - Exam 2015-06-25 14:58:18
IBM C2160-669 SOA Fundamentals [2008] Exam 2015-06-25 14:58:18
IBM C2170-008 IBM C?ram V6, Development Exam 2015-06-25 14:58:18
IBM C2170-009 IBM Curam V6, Business Analysis and Design Exam 2015-06-25 14:58:18
IBM C2170-011 IBM Curam V6.0.4, Business Analysis and Design Exam 2015-06-25 14:58:18
IBM C2170-051 IBM i2 Analyst Notebook V8.9 2015-06-25 14:58:18
IBM C2180-175 IBM WebSphere Lombardi Edition V7.2, Development (Entry) Exam 2015-06-25 14:58:18
IBM C2180-178 IBM WebSphere Lombardi Edition V7.2, BPM Development Exam 2015-06-25 14:58:18
IBM C2180-181 IBM WebSphere ILOG JRules BRMS V7.1, Application Development Exam 2015-06-25 14:58:18
IBM C2180-183 IBM WebSphere Message Broker V7.0, Solution Development Exam 2015-06-25 14:58:18
IBM C2180-184 IBM WebSphere Message Broker V7.0, System Administration Exam 2015-06-25 14:58:18
IBM C2180-186 IBM Business Process Manager Express or Standard Edition V7.5.1 BPM Application Development Exam 2015-06-25 14:58:18
IBM C2180-188 IBM WebSphere Lombardi Edition V7.2, BPM Program Management Exam 2015-06-25 14:58:18
IBM C2180-270 IBM Business Process Manager Advanced V7.5, Integration Development Exam 2015-06-25 14:58:18
IBM C2180-271 IBM Business Process Manager Advanced V7.5.1, Deployment Exam 2015-06-25 14:58:18
IBM C2180-272 IBM WebSphere Message Broker V8.0 Solution Development Exam 2015-06-25 14:58:18
IBM C2180-273 IBM Business Process Manager Advanced V8.0 Integration Development Exam 2015-06-25 14:58:18
IBM C2180-274 IBM WebSphere DataPower SOA Appliances Firmware V5.0 Solution Implementation Exam 2015-06-25 14:58:18
IBM C2180-275 Blueworks Live IBM Business Process Manager Express or Standard Edition, V8.0 BPM Analysis Exam 2015-06-25 14:58:18
IBM C2180-277 IBM WebSphere Message Broker V8.0 System Administration Exam 2015-06-25 14:58:18
IBM C2180-278 IBM Worklight V6.0 Mobile Application Development Exam 2015-06-25 14:58:18
IBM C2180-317 IBM WebSphere Application Server Network Deployment V8.0, Core Administration Exam 2015-06-25 14:58:18
IBM C2180-371 Web Services Development for IBM WebSphere Application Server V7.0 Exam 2015-06-25 14:58:18
IBM C2180-374 IBM WebSphere MQ V7.0, System Administration Exam 2015-06-25 14:58:18
IBM C2180-376 IBM WebSphere MQ V7.0, Solution Design Exam 2015-06-25 14:58:18
IBM C2180-377 IBM WebSphere Application Server Network Deployment V7.0, Core Administration Exam 2015-06-25 14:58:18
IBM C2180-379 IBM WebSphere Integration Developer V6.2, Solution Development Exam 2015-06-25 14:58:18
IBM C2180-400 IBM WebSphere Operational Decision Management V8.0 Application Development Exam 2015-06-25 14:58:18
IBM C2180-529 IBM WebSphere ILOG JRules V7.0, Application Development Exam 2015-06-25 14:58:18
IBM C2180-605 IBM WebSphere Enterprise Service Bus V7.0, Integration Development Exam 2015-06-25 14:58:18
IBM C2180-606 IBM WebSphere Business Modeler Advanced Edition V7.0, Business Analysis and Design Exam 2015-06-25 14:58:18
IBM C2180-607 IBM WebSphere Process Server V7.0, Integration Development Exam 2015-06-25 14:58:18
IBM C2180-608 IBM WebSphere Process Server V7.0, Deployment Exam 2015-06-25 14:58:18
IBM C4040-108 Power Systems Enterprise Technical Support for AIX and Linux -v2 2015-06-25 14:58:18
IBM C4040-109 Virtualization Technical Support and Administration for AIX and Linux -v2 2015-06-25 14:58:18
IBM C4040-120 Associate IBM i 7.1 Administration 2015-06-25 14:58:18
IBM C4040-121 Virtualization Technical Support for IBM i -v1 Exam 2015-06-25 14:58:18
IBM C4040-122 Power Systems with POWER7 Common Sales Skills -v2 Exam 2015-06-25 14:58:18
IBM C4040-123 Power Systems with POWER7 and AIX & Linux Sales Skills -v2 Exam 2015-06-25 14:58:18
IBM C4040-124 Power Systems with POWER7 and IBM i Sales Skills -v2 Exam 2015-06-25 14:58:18
IBM C4040-129 IBM i 7.1 Administration Exam 2015-06-25 14:58:18
IBM C4040-221 AIX 7 Administration Exam 2015-06-25 14:58:18
IBM C4040-224 Power Systems with POWER7 Common Technical Sales Skills -v2 Exam 2015-06-25 14:58:18
IBM C4040-225 Power Systems with POWER7 and AIX & Linux Technical Sales Skills - v2 Exam 2015-06-25 14:58:18
IBM C4040-251 Power Systems with POWER8 Scale-out Technical Sales Skills V1 2015-06-25 14:58:18
IBM C4040-332 High Availability for AIX - Technical Support and Administration -v2 Exam 2015-06-25 14:58:18
IBM C4060-155 System x Server Family Sales V1 Exam 2015-06-25 14:58:18
IBM C4060-156 System x Server Family Technical Support V1 Exam 2015-06-25 14:58:18
IBM C4070-603 IBM System z Solution Sales V6 Exam 2015-06-25 14:58:18
IBM C4070-622 System z Business Resiliency Solution Selling Exam 2015-06-25 14:58:18
IBM C4070-623 System z Cloud and Linux Solution Selling Exam 2015-06-25 14:58:18
IBM C4090-450 Midrange Storage Sales V1 Exam 2015-06-25 14:58:18
IBM C4090-451 IBM Midrange Storage Technical Support V3 2015-06-25 14:58:18
IBM C4090-452 IBM Storwize V7000 Technical Solutions V2 Exam 2015-06-25 14:58:18
IBM C4090-454 IBM High-End Tape Technical Solutions V7 Exam 2015-06-25 14:58:18
IBM C4090-456 IBM XIV Storage System Technical Solutions V4 Exam 2015-06-25 14:58:18
IBM C4090-958 Enterprise Storage Technical Support V3 Exam 2015-06-25 14:58:18
IBM C4090-959 Enterprise Storage Sales V3 (C4090-959) 2015-06-25 14:58:18
IBM C4120-782 IBM PureFlex Systems Sales V2 2015-06-25 14:58:18
IBM C4120-783 IBM PureFlex Technical Support V2 Exam 2015-06-25 14:58:18
IBM C4120-785 IBM PureFlex Sales Expert V1 2015-06-25 14:58:18
IBM C6030-041 Programming with IBM Enterprise PL/I Exam 2015-06-25 14:58:18
IBM C6030-042 Developing with IBM Enterprise PL/I Exam 2015-06-25 14:58:18
IBM C6040-752 IBM Certified Specialist - Retail Store Solution Sales V4 Exam 2015-06-25 14:58:18
IBM C6040-753 Retail Store Solutions - 4690 Technical Solutions Exam 2015-06-25 14:58:18
IBM C6040-754 Retail Store Solutions - Windows Technical Solutions Exam 2015-06-25 14:58:18
IBM COG-105 IBM Cognos 8 BI Technical Specialist 2015-06-25 14:58:18
IBM COG-112 IBM Cognos 8 BI Author Exam 2015-06-25 14:58:18
IBM COG-122 IBM Cognos 8 BI Administrator 2015-06-25 14:58:18
IBM COG-125 Cognos 8 BI Data Warehouse Developer 2015-06-25 14:58:18
IBM COG-132 IBM Cognos 8 BI Metadata Model Developer 2015-06-25 14:58:18
IBM COG-135 IBM Cognos 8 BI OLAP Developer 2015-06-25 14:58:18
IBM COG-142 IBM Cognos 8 BI Scorecard Developer 2015-06-25 14:58:18
IBM COG-145 IBM Cognos 8 BI Multidimensional Author 2015-06-25 14:58:18
IBM COG-180 IBM Cognos 8 BI Professional 2015-06-25 14:58:18
IBM COG-185 IBM Cognos 8 Migration Professional Exam 2015-06-25 14:58:18
IBM COG-200 IBM Cognos 8 Controller Developer 2015-06-25 14:58:18
IBM COG-205 IBM Cognos 8 Controller Technical Specialist 2015-06-25 14:58:18
IBM COG-300 IBM Cognos TM1 Analyst 2015-06-25 14:58:18
IBM COG-310 IBM Cognos TM1 Developer 2015-06-25 14:58:18
IBM COG-320 IBM Cognos Express Xcelerator and Advisor v9 2015-06-25 14:58:18
IBM COG-321 IBM Cognos Express Reporter v9.0 2015-06-25 14:58:18
IBM COG-385 IBM Cognos TM1 Master Exam 2015-06-25 14:58:18
IBM COG-400 IBM Cognos 8 Planning Application Consultant 2015-06-25 14:58:18
IBM COG-480 IBM Cognos 8 Planning Professional 2015-06-25 14:58:18
IBM COG-500 IBM Cognos 8 Analytic Applications Developer 2015-06-25 14:58:18
IBM COG-605 IBM Cognos 10 Controller Developer 2015-06-25 14:58:18
IBM COG-612 IBM Cognos 10 BI Author 2015-06-25 14:58:18
IBM COG-615 IBM Cognos Real-time Monitoring Developer 2015-06-25 14:58:18
IBM COG-622 IBM Cognos 10 BI Administrator 2015-06-25 14:58:18
IBM COG-625 IBM Cognos 10 BI Data Warehouse Developer 2015-06-25 14:58:18
IBM COG-632 IBM Cognos 10 BI Metadata Model Developer 2015-06-25 14:58:18
IBM COG-635 IBM Cognos 10 BI OLAP Developer 2015-06-25 14:58:18
IBM COG-642 IBM Cognos 10 BI Scorecard Developer 2015-06-25 14:58:18
IBM COG-645 IBM Cognos 10 BI Multidimensional Author 2015-06-25 14:58:18
IBM COG-700 IBM Cognos 10 Planning Application Consultant 2015-06-25 14:58:18
IBM COG-701 IBM Cognos TM1 10.1 Analyst 2015-06-25 14:58:18
IBM COG-702 IBM Cognos TM1 10.1 Developer 2015-06-25 14:58:18
IBM COG-703 IBM Cognos TM1 10.1 Administrator 2015-06-25 14:58:18
IBM COG-706 IBM Cognos Financial Statement Reporting Developer 2015-06-25 14:58:18
IBM CUR-008 IBM C?ram V6, Development 2015-06-25 14:58:18
IBM CUR-011 IBM C?ram V6.0.4, Business Analysis and Design 2015-06-25 14:58:18
IBM CUR-051 IBM i2 Analyst Exam 2015-06-25 14:58:18
IBM LOT-402 Administering IBM Connections 4.0 2015-06-25 14:58:18
IBM LOT-403 IBM Forms 8.0 - Form Design and Development 2015-06-25 14:58:18
IBM LOT-404 Developing Enterprise Mobile Applications with IBM Worklight and IBM WebSphere Portal 2015-06-25 14:58:18
IBM LOT-405 IBM Notes and Domino 9.0 Social Edition System Administration Update 2015-06-25 14:58:18
IBM LOT-406 IBM Notes and Domino 9.0 Social Edition System Administration A 2015-06-25 14:58:18
IBM LOT-407 IBM Notes and Domino 9.0 Social Edition System Administration B 2015-06-25 14:58:18
IBM LOT-408 IBM Notes and Domino 9.0 Social Edition Application Development Update 2015-06-25 14:58:18
IBM LOT-409 IBM Notes and Domino 9.0 Social Edition Application Development A 2015-06-25 14:58:18
IBM LOT-410 IBM Notes and Domino 9.0 Social Edition Application Development B 2015-06-25 14:58:18
IBM LOT-412 IBM Notes Traveler Administration 2015-06-25 14:58:18
IBM LOT-440 IBM WebSphere Portal and Portal Products Fundamentals 2015-06-25 14:58:18
IBM LOT-441 IBM Social Software and Unified Communications Fundamentals 2015-06-25 14:58:18
IBM LOT-442 IBM Notes and Domino Fundamentals 2015-06-25 14:58:18
IBM LOT-701 IBM Lotus Notes Domino Application Development Update Exam 2015-06-25 14:58:18
IBM LOT-702 IBM Lotus Notes Domino 7 System Administration Update Exam 2015-06-25 14:58:18
IBM LOT-710 IBM Lotus Notes Domino 7 Application Development Foundation Skills 2015-06-25 14:58:18
IBM LOT-711 IBM Lotus Notes Domino 7 Application Development Intermediate Skills 2015-06-25 14:58:18
IBM LOT-720 IBM Lotus Notes Domino 7 System Administration Operating Fundamentals 2015-06-25 14:58:18
IBM LOT-721 IBM Lotus Notes Domino 7 Building the Infrastructure Exam 2015-06-25 14:58:18
IBM LOT-722 IBM Lotus Notes Domino 7 Managing Servers and Users Exam 2015-06-25 14:58:18
IBM LOT-737 Using LotusScript in IBM Lotus Domino 7 Applications Exam 2015-06-25 14:58:18
IBM LOT-738 Developing Applications with IBM Lotus Sametime 7.5 Exam 2015-06-25 14:58:18
IBM LOT-739 IBM Lotus Domino 7 Configuring Domino Web Servers 2015-06-25 14:58:18
IBM LOT-753 Using JavaScript in IBM Lotus Domino 7 Applications 2015-06-25 14:58:18
IBM LOT-755 IBM Lotus Notes Domino 7 Implementing and Administering Security 2015-06-25 14:58:18
IBM LOT-756 Using Web Services in IBM Lotus Domino 7 Applications Exam 2015-06-25 14:58:18
IBM LOT-800 Administering IBM Lotus Sametime 8 Exam 2015-06-25 14:58:18
IBM LOT-801 IBM Lotus Notes Domino 8 Application Development Update Exam 2015-06-25 14:58:18
IBM LOT-802 IBM Lotus Notes Domino 8 System Administration Update 2015-06-25 14:58:18
IBM LOT-803 Using LotusScript in IBM Lotus Domino 8 Applications Exam 2015-06-25 14:58:18
IBM LOT-804 Using JavaScript in IBM Lotus Domino 8 Applications 2015-06-25 14:58:18
IBM LOT-805 Using Web Services in IBM Lotus Domino 8 Applications Exam 2015-06-25 14:58:18
IBM LOT-822 Building Forms Applications Using IBM Workplace Forms 2.6 Exam 2015-06-25 14:58:18
IBM LOT-824 Building Portlets with IBM WebSphere Portlet Factory 6 Exam 2015-06-25 14:58:18
IBM LOT-825 IBM WebSphere Portal 6 Deployment and Administration Exam 2015-06-25 14:58:18
IBM LOT-828 Administering IBM Workplace Services Express 2.6 Exam 2015-06-25 14:58:18
IBM LOT-829 IBM WebSphere Portal 6 Application Development Exam 2015-06-25 14:58:18
IBM LOT-832 Developing Websites Using IBM Workplace Web Content Management 6 2015-06-25 14:58:18
IBM LOT-834 IBM Lotus Notes Domino 8 Application Development Foundation Skills 2015-06-25 14:58:18
IBM LOT-835 IBM Lotus Notes Domino 8 Application Development Intermediate Skills 2015-06-25 14:58:18
IBM LOT-836 IBM Lotus Notes Domino 8 Developing Web Applications 2015-06-25 14:58:18
IBM LOT-838 IBM Lotus Notes Domino 8 Developing Composite Applications 2015-06-25 14:58:18
IBM LOT-840 IBM Lotus Notes Domino 8 Configuring Domino Web Servers 2015-06-25 14:58:18
IBM LOT-841 IBM Lotus Notes Domino 8 Implementing and Administering Security Exam 2015-06-25 14:58:18
IBM LOT-847 IBM Lotus Notes Domino 8 System Administration Operating Fundamentals 2015-06-25 14:58:18
IBM LOT-848 IBM Lotus Notes Domino 8 Building the Infrastructure 2015-06-25 14:58:18
IBM LOT-849 IBM Lotus Notes Domino 8 Managing Servers and Users 2015-06-25 14:58:18
IBM LOT-910 IBM WebSphere Portal 7.0 Deployment and Administration Update 2015-06-25 14:58:18
IBM LOT-911 IBM WebSphere Portal 8.0 Solution Development 2015-06-25 14:58:18
IBM LOT-912 IBM LotusLive 2010 Train 2 Technical Specialist 2015-06-25 14:58:18
IBM LOT-913 Developing Websites Using IBM Lotus Web Content Management 7.0 2015-06-25 14:58:18
IBM LOT-914 Administering IBM Lotus Quickr 8.5 For Domino 2015-06-25 14:58:18
IBM LOT-915 IBM WebSphere Portal 7.0 Solution 2015-06-25 14:58:18
IBM LOT-916 IBM Forms 4 - Form Design and Development 2015-06-25 14:58:18
IBM LOT-917 Administering IBM Connections 3.0 2015-06-25 14:58:18
IBM LOT-918 Developing Portals & Web Apps IBM WebSphere Portlet Fact 7.0 2015-06-25 14:58:18
IBM LOT-919 IBM LotusLive 2Q 2011 Technical Specialist 2015-06-25 14:58:18
IBM LOT-920 IBM WebSphere Portal 7.0 Deployment and Administration 2015-06-25 14:58:18
IBM LOT-921 IBM Websphere Portal 7.0 Migration and Support 2015-06-25 14:58:18
IBM LOT-922 Developing IBM Lotus Domino 8.5.2 Applications Advanced XPage Design 2015-06-25 14:58:18
IBM LOT-923 IBM WebSphere Portal 8.0 Deployment and Administration 2015-06-25 14:58:18
IBM LOT-924 IBM WebSphere Portal 8.0 Migration and Support 2015-06-25 14:58:18
IBM LOT-925 Installing and Configuring IBM Lotus Notes and Domino 8.5 2015-06-25 14:58:18
IBM LOT-926 Managing and Maintaining IBM Lotus Notes and Domino 8.5 Environments 2015-06-25 14:58:18
IBM LOT-927 Developing Portlets and Web Applications with IBM Web Experience Factory 8.0 2015-06-25 14:58:18
IBM LOT-928 Developing Websites Using IBM Web Content Manager 8.0 2015-06-25 14:58:18
IBM LOT-929 IBM WebSphere Portal 8.0 Deployment and Administration Update 2015-06-25 14:58:18
IBM LOT-950 Administering IBM Lotus Quickr 8.1 Services for IBM Lotus Domino Exam 2015-06-25 14:58:18
IBM LOT-951 IBM Lotus Notes Domino 8.5 Application Development Update Exam 2015-06-25 14:58:18
IBM LOT-952 IBM Lotus Notes Domino 8.5 Application Development Foundation Skills Exam 2015-06-25 14:58:18
IBM LOT-953 IBM Lotus Notes Domino 8.5 Application Development Intermediate Skills 2015-06-25 14:58:18
IBM LOT-954 IBM Lotus Notes Domino 8.5 Developing Web Applications 2015-06-25 14:58:18
IBM LOT-955 IBM WebSphere Portal 6.1 Deployment and Administration Exam 2015-06-25 14:58:18
IBM LOT-956 IBM Lotus Notes Domino 8.5 System Administration Update Exam 2015-06-25 14:58:18
IBM LOT-957 Administering IBM Lotus Connections 2.0 Exam 2015-06-25 14:58:18
IBM LOT-958 IBM SmartCloud Notes Hybrid Config & Onboard Data Transfer 2015-06-25 14:58:18
IBM LOT-959 IBM WebShere Portal 6.1 Application Development 2015-06-25 14:58:18
IBM LOT-980 IBM Lotus Notes Domino 8.5 System Administration Operating Fundamentals 2015-06-25 14:58:18
IBM LOT-981 IBM Lotus Notes 8.5 Building the Infrastructure Exam 2015-06-25 14:58:18
IBM LOT-982 Administering IBM Lotus Quickr 8.1 Services for IBM WebSphere Portal Exam 2015-06-25 14:58:18
IBM LOT-983 IBM Lotus Notes Domino 8.5 Managing Servers and Users 2015-06-25 14:58:18
IBM LOT-985 Developing IBM Lotus Notes and Domino 8.5 Applications 2015-06-25 14:58:18
IBM LOT-986 Creating IBM Lotus Notes and Domino 8.5 Applications with Xpages and Advanced Techniques 2015-06-25 14:58:18
IBM LOT-987 Administering IBM Lotus Connections 2.5 2015-06-25 14:58:18
IBM LOT-988 Administering IBM Lotus Sametime 8.5 2015-06-25 14:58:18
IBM LOT-989 Building Portlets with IBM WebSphere Portlet Factory 6.1.5 2015-06-25 14:58:18
IBM M2010-616 TSM Butterfly Analysis Engine Report Sales Mastery V1 Exam 2015-06-25 14:58:18
IBM M2010-701 IBM Maximo Enterprise Asset Management Sales Mastery Test v4 2015-06-25 14:58:18
IBM M2010-719 Cloud and Smarter Infrastructure Storage Sales Mastery Test v5 2015-06-25 14:58:18
IBM M2010-720 TRIRIGA Real Estate and Facility Management Sales Mastery Test v1 2015-06-25 14:58:18
IBM M2010-727 Cloud and Smarter Infrastructure Cloud & Service Management Sales Mastery v1 2015-06-25 14:58:18
IBM M2020-229 IBM SPSS Predictive Analytics Sales Mastery v1 Exam 2015-06-25 14:58:18
IBM M2020-615 IBM Business Analytics Performance Management Sales Mastery Test v2 Exam 2015-06-25 14:58:18
IBM M2020-618 IBM Business Analytics Midmarket Foundational Sales Mastery Test v2 2015-06-25 14:58:18
IBM M2020-620 IBM Risk Analytics Sales Mastery Test v1 Exam 2015-06-25 14:58:18
IBM M2020-621 IBM Risk Analytics for Banking Sales Mastery Test v1 2015-06-25 14:58:18
IBM M2020-622 IBM Risk Analytics for Insurance and Pensions Sales Mastery Test v1 Exam 2015-06-25 14:58:18
IBM M2020-623 IBM Risk Analytics for Asset Management Sales Mastery Test v1 Exam 2015-06-25 14:58:18
IBM M2020-624 IBM Risk Analytics for Governance Risk and Compliance Sales Mastery Test v1 Exam 2015-06-25 14:58:18
IBM M2020-645 IBM Cognos Business Intelligence Sales Mastery Test v2 Exam 2015-06-25 14:58:18
IBM M2020-732 IBM SPSS Modeler Sales Mastery Test v1 2015-06-25 14:58:18
IBM M2020-733 IBM SPSS Statistics Sales Mastery Test v1 2015-06-25 14:58:18
IBM M2040-641 IBM Exceptional Web Experience Sales Mastery Test v1 Exam 2015-06-25 14:58:18
IBM M2040-642 ICS Social Software Sales Mastery Test v2 Exam 2015-06-25 14:58:18
IBM M2040-656 ICS SmartCloud for Social Business Sales Mastery Test v1 Exam 2015-06-25 14:58:18
IBM M2040-669 IBM SmartCloud for Social Business for SaaS Solution Provider Sales Mastery v1 Exam 2015-06-25 14:58:18
IBM M2040-671 IBM Notes and Domino Sales Mastery Test v3 2015-06-25 14:58:18
IBM M2040-723 IBM Kenexa Talent Optimization Sales Mastery Test v1 2015-06-25 14:58:18
IBM M2040-724 IBM Kenexa Talent Engagement and Rewards Sales Mastery Test v1 2015-06-25 14:58:18
IBM M2040-725 IBM Kenexa Talent Acquisition Sales Mastery Test v1 2015-06-25 14:58:18
IBM M2050-243 IBM Optimization Supply Chain Mgmt Sales Mastery Test v1 Exam 2015-06-25 14:58:18
IBM M2050-655 IBM Emptoris Services Procurement Sales Mastery Test v1 Exam 2015-06-25 14:58:18
IBM M2060-729 IBM Managed File Transfer Sales Mastery Test v2 2015-06-25 14:58:18
IBM M2060-730 IBM B2B Integration-Network Sales Mastery Test v2 2015-06-25 14:58:18
IBM M2070-644 ECM Information Lifecycle Governance Sales Mastery Test v1 Exam 2015-06-25 14:58:18
IBM M2070-740 IBM Enterprise Content Management Sales Mastery Test v3 2015-06-25 14:58:18
IBM M2080-241 IBM Enterprise Marketing Management Sales Mastery Test v1 Exam 2015-06-25 14:58:18
IBM M2080-658 IBM DemandTec Sales Mastery Test v1 Exam 2015-06-25 14:58:18
IBM M2080-663 IBM Digital Marketing Optimization Sales Mastery v1 Exam 2015-06-25 14:58:18
IBM M2080-713 IBM Mobile Customer Engagement Sales Mastery Test v1 2015-06-25 14:58:18
IBM M2090-234 IBM Netezza Sales Mastery Test v1 Exam 2015-06-25 14:58:18
IBM M2090-639 IBM Big Data Sales Mastery Test v1 Exam 2015-06-25 14:58:18
IBM M2090-728 IBM Information Management Data Security & Privacy Sales Mastery v1 2015-06-25 14:58:18
IBM M2090-743 IBM Big Data and Analytics Sales Mastery v2 2015-06-25 14:58:18
IBM M2110-231 IBM Software Subscription & Support Sales Mastery Test v1 Exam 2015-06-25 14:58:18
IBM M2110-670 IBM SVP Primary Support Provider Mastery Test v1 Exam 2015-06-25 14:58:18
IBM M2140-648 IBM Rational IT Sales Mastery Test v2 Exam 2015-06-25 14:58:18
IBM M2140-649 IBM Rational Systems & Software Engineering Sales Mastery Test v2 Exam 2015-06-25 14:58:18
IBM M2150-709 IBM Security Systems Sales Mastery Test v3 2015-06-25 14:58:18
IBM M2170-741 IBM i2 Intelligence Sales Mastery Test v2 2015-06-25 14:58:18
IBM M2180-646 IBM WebSphere Sales Mastery Test v5 Exam 2015-06-25 14:58:18
IBM M2180-651 IBM PureApplication System Sales MasteryTest v1 Exam 2015-06-25 14:58:18
IBM M2180-716 IBM MobileFirst Sales Mastery Test v1 2015-06-25 14:58:18
IBM M6040-419 SurePOS 500 Series models 5x6 Sales Mastery 2015-06-25 14:58:18
IBM M6040-420 SureMark Printers Models 2xR and 1xR Sales Mastery 2015-06-25 14:58:18
IBM M6040-423 IBM AnyPlace Kiosk models 3xx, 5xx, 7xx, and 9xx Sales Mastery Exam 2015-06-25 14:58:18
IBM M6040-424 IBM SurePOS 30 Models 34x and E4x Sales mastery Exam 2015-06-25 14:58:18
IBM M6040-426 IBM SurePOS 700 Series Models 745, 775, and 785 Sales Mastery Exam 2015-06-25 14:58:18
IBM M6040-427 IBM SurePOS 300 Series Models 350 and E50 Sales Mastery Exam 2015-06-25 14:58:18
IBM M6040-520 IBM Retail Store Solutions Sales Professional Mastery 2015-06-25 14:58:18
IBM P2040-052 IBM SmartCloud for Social Business Technical Mastery Test v4 Exam 2015-06-25 14:58:18
IBM P2040-060 IBM Lotus Symphony Technical Sales Mastery Test v1 Exam 2015-06-25 14:58:18
IBM P2050-003 IBM Commerce Solutions Selling Technical Mastery Test v1 Exam 2015-06-25 14:58:18
IBM P2050-028 IBM Emptoris Strategic Supply Management Technical Mastery Test v1 Exam 2015-06-25 14:58:18
IBM P2060-001 IBM B2B Integration Technical Mastery Test v1 Exam 2015-06-25 14:58:18
IBM P2060-002 IBM Managed File Transfer Technical Mastery Test v1 Exam 2015-06-25 14:58:18
IBM P2070-055 IBM FileNet P8 System Implementation Technical Mastery Test v1 Exam 2015-06-25 14:58:18
IBM P2070-071 IBM Information Management Content Management OnDemand Technical Mastery Test v1 Exam 2015-06-25 14:58:18
IBM P2070-092 IBM Datacap Taskmaster Capture Practical Application Technical Mastery v1 Exam 2015-06-25 14:58:18
IBM P2070-093 IBM Datacap Taskmaster Capture Product Fundamentals Technical Mastery Test v1 Exam 2015-06-25 14:58:18
IBM P2080-034 IBM Tealeaf Technical Mastery Test v1 Exam 2015-06-25 14:58:18
IBM P2080-096 IBM Unica Enterprise Campaign Technical Mastery Test v1 Exam 2015-06-25 14:58:18
IBM P2090-008 IBM InfoSphere Streams Technical Mastery Test v1 Exam 2015-06-25 14:58:18
IBM P2090-010 IBM InfoSphere Information Server Technical Mastery Test v2 Exam 2015-06-25 14:58:18
IBM P2090-027 IBM InfoSphere Warehouse Technical Mastery Test v1 Exam 2015-06-25 14:58:18
IBM P2090-032 IBM Big Data Fundamentals Technical Mastery Test v1 Exam 2015-06-25 14:58:18
IBM P2090-038 IBM InfoSphere BigInsights Technical Mastery Test v2 Exam 2015-06-25 14:58:18
IBM P2090-045 IBM InfoSphere Information Server for Data Integration Fundamentals Technical Mastery Test v1 Exam 2015-06-25 14:58:18
IBM P2090-080 IBM ISW-9.7 & Smart Analytics Technical Mastery Test v1 Exam 2015-06-25 14:58:18
IBM P2090-086 IBM InfoSphere Master Data Mgmt-PIM Technical Mastery v1 Exam 2015-06-25 14:58:18
IBM P2090-095 IBM InfoSphere QualityStage Fundamentals Technical Mastery Test v1 Exam 2015-06-25 14:58:18
IBM P2140-020 IBM Rational Enterprise Modernization Technical Sales Mastery Test v1 Exam 2015-06-25 14:58:18
IBM P2140-021 IBM Rational Collaborative Lifecycle Management for IT Technical Sales Mastery Test v1 Exam 2015-06-25 14:58:18
IBM P2170-033 IBM i2 Intelligence Technical Mastery Test v1 Exam 2015-06-25 14:58:18
IBM P2170-035 IBM i2 Analyst Notebook Support Mastery Test v1 2015-06-25 14:58:18
IBM P2170-036 IBM i2 iBase Support Mastery Test v1 Exam 2015-06-25 14:58:18
IBM P2180-039 IBM WebSphere MQ Technical Sales Mastery Test v2 Exam 2015-06-25 14:58:18
IBM P2180-089 IBM WebSphere Cast Iron Technical Sales Mastery Test v1 2015-06-25 14:58:18
IBM P4070-005 IBM System z and z/OS Fundamentals Mastery Exam 2015-06-25 14:58:18
IBM P6010-040 IBM SmartCloud Enterprise+ (SCE+) Sales Mastery Test - Exam 2015-06-25 14:58:18
IBM P6040-017 IBM SurePOS 700 Series Models 7x3 Technical Mastery Exam 2015-06-25 14:58:18
IBM P6040-025 IBM SurePOS 700 Series Models 743 and 784 Technical Mastery Exam 2015-06-25 14:58:18
IBM SPS-100 IBM SPSS Statistics Level 1 2015-06-25 14:58:18
IBM SPS-200 IBMSPSSMPRO IBM SPSS Modeler Professional 2015-06-25 14:58:18
IBM SPS-201 IBMSPSSMBPDA IBM SPSS Modeler Business Partner Data Analyst Associate 2015-06-25 14:58:18
IBM SPS-202 IBMSPSSMBPDM IBM SPSS Modeler Business Partner Data Mining Associate 2015-06-25 14:58:18

Top 5 recently updated dumps

Vendor Exam Number Exam Namee Updated Date
Oracle 1z0-100 Oracle Linux 5 and 6 System Administration 2017-06-22 09:46:28
Oracle 1z0-804 Java SE 7 Programmer II Exam 2017-06-15 13:04:46
SAS Institute A00-260 SAS Data Integration Development 2017-06-14 10:30:26
ECCouncil EC1-349 Computer Hacking Forensic Investigator Exam (EC1-349) 2017-06-13 10:37:54
ECCouncil EC0-349 ECCouncil Computer Hacking Forensic Investigator 2017-06-13 10:36:29

film izle halı saha yapan firmalar istanbul escort izmir escort ankara escort gaziantep escort